| time (UTC) | temp F | wind direction | speed knots | gust knots | rain 1hr in | rain 24hr in | rain mn in | humidity % | barometer mb |
| 20260506195120 | 54 | 87 | 0.9 | 3.5 | 0.00 | 0.31 | 0.31 | 78 | 1010.6 |
| 20260506195039 | 55 | 87 | 0.9 | 3.5 | 0.00 | 0.31 | 0.31 | 78 | 1010.6 |
| 20260506194822 | 55 | 134 | 1.7 | 6.1 | 0.00 | 0.31 | 0.31 | 78 | 1010.6 |
| 20260506194624 | 55 | 126 | 2.6 | 6.1 | 0.00 | 0.31 | 0.31 | 78 | 1010.5 |
| 20260506194531 | 55 | 136 | 2.6 | 6.1 | 0.00 | 0.31 | 0.31 | 78 | 1010.6 |
| 20260506194430 | 55 | 134 | 2.6 | 6.1 | 0.00 | 0.31 | 0.31 | 78 | 1010.5 |
| 20260506194322 | 55 | 186 | 1.7 | 6.1 | 0.00 | 0.31 | 0.31 | 78 | 1010.5 |
| 20260506194221 | 55 | 147 | 1.7 | 6.1 | 0.00 | 0.31 | 0.31 | 78 | 1010.5 |
| 20260506194120 | 55 | 148 | 1.7 | 6.1 | 0.00 | 0.31 | 0.31 | 78 | 1010.6 |
| 20260506194039 | 55 | 147 | 1.7 | 6.1 | 0.00 | 0.31 | 0.31 | 77 | 1010.5 |
| 20260506193921 | 55 | 157 | 1.7 | 6.1 | 0.00 | 0.31 | 0.31 | 76 | 1010.6 |
| 20260506193822 | 55 | 190 | 1.7 | 5.2 | 0.00 | 0.31 | 0.31 | 75 | 1010.6 |
| 20260506193722 | 56 | 187 | 1.7 | 5.2 | 0.00 | 0.31 | 0.31 | 76 | 1010.5 |
| 20260506193620 | 56 | 142 | 0.9 | 3.5 | 0.00 | 0.31 | 0.31 | 76 | 1010.4 |
| 20260506193426 | 56 | 159 | 0.9 | 4.3 | 0.00 | 0.31 | 0.31 | 75 | 1010.6 |
| 20260506193320 | 56 | 159 | 0.9 | 4.3 | 0.00 | 0.31 | 0.31 | 75 | 1010.5 |
| 20260506193221 | 56 | 159 | 0.9 | 4.3 | 0.00 | 0.31 | 0.31 | 76 | 1010.4 |
| 20260506193132 | 56 | 161 | 0.9 | 4.3 | 0.00 | 0.31 | 0.31 | 76 | 1010.5 |
| 20260506192919 | 57 | 96 | 0.9 | 4.3 | 0.00 | 0.31 | 0.31 | 74 | 1010.4 |
| 20260506192721 | 57 | 67 | 0.9 | 4.3 | 0.00 | 0.31 | 0.31 | 74 | 1010.4 |
| 20260506192621 | 57 | 59 | 0.9 | 4.3 | 0.00 | 0.31 | 0.31 | 73 | 1010.4 |
| 20260506192527 | 57 | 59 | 0.9 | 4.3 | 0.00 | 0.31 | 0.31 | 73 | 1010.4 |
| 20260506192428 | 57 | 59 | 1.7 | 5.2 | 0.00 | 0.31 | 0.31 | 73 | 1010.4 |
| 20260506192321 | 57 | 60 | 1.7 | 5.2 | 0.00 | 0.31 | 0.31 | 73 | 1010.4 |
| 20260506192223 | 57 | 60 | 1.7 | 5.2 | 0.00 | 0.31 | 0.31 | 73 | 1010.4 |
| 20260506192126 | 57 | 61 | 2.6 | 5.2 | 0.00 | 0.31 | 0.31 | 73 | 1010.4 |
| 20260506192038 | 57 | 75 | 2.6 | 7.0 | 0.00 | 0.31 | 0.31 | 72 | 1010.4 |
| 20260506191920 | 57 | 75 | 3.5 | 7.0 | 0.00 | 0.31 | 0.31 | 72 | 1010.2 |
| 20260506191820 | 57 | 75 | 3.5 | 8.7 | 0.00 | 0.31 | 0.31 | 72 | 1010.4 |
| 20260506191723 | 57 | 75 | 3.5 | 8.7 | 0.00 | 0.31 | 0.31 | 72 | 1010.3 |
| 20260506191623 | 57 | 69 | 3.5 | 8.7 | 0.00 | 0.31 | 0.31 | 72 | 1010.2 |
| 20260506191421 | 57 | 63 | 3.5 | 8.7 | 0.00 | 0.31 | 0.31 | 73 | 1010.2 |
| 20260506191324 | 57 | 57 | 3.5 | 8.7 | 0.00 | 0.31 | 0.31 | 73 | 1010.2 |
| 20260506191222 | 57 | 68 | 3.5 | 8.7 | 0.00 | 0.31 | 0.31 | 73 | 1010.1 |
| 20260506191122 | 57 | 86 | 3.5 | 8.7 | 0.00 | 0.31 | 0.31 | 73 | 1010.2 |
| 20260506190926 | 56 | 141 | 2.6 | 8.7 | 0.00 | 0.31 | 0.31 | 72 | 1010.3 |
| 20260506190721 | 56 | 134 | 2.6 | 6.1 | 0.00 | 0.31 | 0.31 | 69 | 1010.2 |
| 20260506190627 | 56 | 150 | 2.6 | 6.1 | 0.00 | 0.31 | 0.31 | 70 | 1010.2 |
| 20260506190536 | 56 | 148 | 2.6 | 6.1 | 0.00 | 0.31 | 0.31 | 70 | 1010.0 |
| 20260506190419 | 56 | 150 | 2.6 | 6.1 | 0.00 | 0.31 | 0.31 | 72 | 1010.1 |
| 20260506190319 | 56 | 172 | 2.6 | 5.2 | 0.00 | 0.31 | 0.31 | 72 | 1010.0 |
| 20260506190222 | 56 | 194 | 1.7 | 5.2 | 0.00 | 0.31 | 0.31 | 69 | 1010.0 |
| 20260506190040 | 56 | 132 | 2.6 | 5.2 | 0.00 | 0.31 | 0.31 | 70 | 1009.9 |
| 20260506185925 | 56 | 107 | 2.6 | 6.1 | 0.00 | 0.31 | 0.31 | 70 | 1010.0 |
| 20260506185821 | 56 | 92 | 2.6 | 7.0 | 0.00 | 0.31 | 0.31 | 68 | 1010.0 |
| 20260506185719 | 56 | 88 | 2.6 | 7.0 | 0.00 | 0.31 | 0.31 | 68 | 1010.0 |
| 20260506185620 | 56 | 50 | 2.6 | 7.0 | 0.00 | 0.31 | 0.31 | 69 | 1010.0 |
| 20260506185534 | 56 | 62 | 2.6 | 7.0 | 0.00 | 0.31 | 0.31 | 69 | 1009.9 |
| 20260506185420 | 56 | 86 | 1.7 | 7.0 | 0.00 | 0.31 | 0.31 | 70 | 1009.8 |
| 20260506185325 | 56 | 185 | 1.7 | 7.0 | 0.00 | 0.31 | 0.31 | 69 | 1009.8 |
| 20260506185220 | 56 | 185 | 1.7 | 7.0 | 0.00 | 0.31 | 0.31 | 70 | 1009.9 |
| 20260506185036 | 57 | 192 | 0.9 | 7.0 | 0.00 | 0.31 | 0.31 | 71 | 1009.9 |
| 20260506184922 | 57 | 19 | 0.9 | 2.6 | 0.00 | 0.31 | 0.31 | 68 | 1009.7 |
| 20260506184821 | 57 | 132 | 0.9 | 2.6 | 0.00 | 0.31 | 0.31 | 66 | 1009.7 |
| 20260506184720 | 58 | 164 | 0.0 | 2.6 | 0.00 | 0.31 | 0.31 | 67 | 1009.8 |
| 20260506184622 | 58 | 164 | 0.9 | 3.5 | 0.00 | 0.31 | 0.31 | 66 | 1009.6 |
| 20260506184533 | 58 | 165 | 0.0 | 3.5 | 0.00 | 0.31 | 0.31 | 67 | 1009.7 |
| 20260506184419 | 58 | 184 | 0.0 | 2.6 | 0.00 | 0.31 | 0.31 | 67 | 1009.6 |
| 20260506184322 | 58 | 184 | 0.9 | 2.6 | 0.00 | 0.31 | 0.31 | 65 | 1009.6 |
| 20260506184121 | 59 | 184 | 0.9 | 3.5 | 0.00 | 0.31 | 0.31 | 65 | 1009.4 |
| 20260506184036 | 59 | 184 | 1.7 | 6.1 | 0.00 | 0.31 | 0.31 | 66 | 1009.5 |
| 20260506183923 | 59 | 184 | 2.6 | 7.8 | 0.00 | 0.31 | 0.31 | 62 | 1009.5 |
| 20260506183820 | 59 | 184 | 2.6 | 9.6 | 0.00 | 0.31 | 0.31 | 63 | 1009.4 |
| 20260506183719 | 59 | 184 | 2.6 | 9.6 | 0.00 | 0.31 | 0.31 | 63 | 1009.3 |
| 20260506183535 | 59 | 78 | 2.6 | 9.6 | 0.00 | 0.31 | 0.31 | 60 | 1009.4 |
| 20260506183420 | 59 | 84 | 2.6 | 9.6 | 0.00 | 0.31 | 0.31 | 60 | 1009.4 |
| 20260506183321 | 59 | 85 | 2.6 | 9.6 | 0.00 | 0.31 | 0.31 | 60 | 1009.3 |
| 20260506183124 | 59 | 109 | 2.6 | 9.6 | 0.00 | 0.31 | 0.31 | 60 | 1009.2 |
| 20260506183036 | 59 | 103 | 2.6 | 9.6 | 0.00 | 0.31 | 0.31 | 60 | 1009.3 |
| 20260506182919 | 58 | 112 | 2.6 | 9.6 | 0.00 | 0.31 | 0.31 | 62 | 1009.3 |
| 20260506182822 | 58 | 146 | 1.7 | 7.0 | 0.00 | 0.31 | 0.31 | 62 | 1009.3 |
| 20260506182722 | 59 | 57 | 1.7 | 7.0 | 0.00 | 0.31 | 0.31 | 62 | 1009.1 |
| 20260506182620 | 59 | 57 | 2.6 | 7.0 | 0.00 | 0.31 | 0.31 | 61 | 1009.1 |
| 20260506182528 | 59 | 57 | 2.6 | 7.0 | 0.00 | 0.31 | 0.31 | 61 | 1009.1 |
| 20260506182421 | 59 | 41 | 2.6 | 7.0 | 0.00 | 0.31 | 0.31 | 61 | 1009.1 |
| 20260506182322 | 59 | 5 | 2.6 | 7.0 | 0.00 | 0.31 | 0.31 | 61 | 1009.0 |
| 20260506182221 | 59 | 305 | 2.6 | 6.1 | 0.00 | 0.31 | 0.31 | 60 | 1009.0 |
| 20260506182036 | 59 | 18 | 3.5 | 7.8 | 0.00 | 0.31 | 0.31 | 60 | 1008.8 |
| 20260506181925 | 59 | 202 | 3.5 | 10.4 | 0.00 | 0.31 | 0.31 | 60 | 1008.8 |
| 20260506181820 | 59 | 147 | 4.3 | 10.4 | 0.00 | 0.31 | 0.31 | 61 | 1008.5 |
| 20260506181620 | 59 | 355 | 5.2 | 20.0 | 0.00 | 0.31 | 0.31 | 61 | 1008.4 |
| 20260506181529 | 59 | 214 | 6.1 | 19.1 | 0.00 | 0.31 | 0.31 | 60 | 1008.2 |
| 20260506181420 | 59 | 147 | 7.0 | 19.1 | 0.00 | 0.31 | 0.31 | 60 | 1008.2 |
| 20260506181321 | 59 | 217 | 7.0 | 19.1 | 0.00 | 0.31 | 0.31 | 60 | 1008.2 |
| 20260506181221 | 59 | 184 | 7.8 | 19.1 | 0.00 | 0.31 | 0.31 | 59 | 1008.2 |
| 20260506181123 | 59 | 177 | 7.8 | 19.1 | 0.00 | 0.31 | 0.31 | 59 | 1008.1 |
| 20260506180923 | 59 | 192 | 7.8 | 19.1 | 0.00 | 0.31 | 0.31 | 59 | 1007.9 |
| 20260506180820 | 59 | 188 | 7.0 | 19.1 | 0.00 | 0.31 | 0.31 | 59 | 1008.1 |
| 20260506180723 | 59 | 191 | 7.0 | 13.9 | 0.00 | 0.31 | 0.31 | 59 | 1007.9 |
| 20260506180620 | 59 | 198 | 7.0 | 13.9 | 0.00 | 0.31 | 0.31 | 59 | 1007.9 |
| 20260506180419 | 59 | 178 | 7.0 | 13.9 | 0.00 | 0.31 | 0.31 | 58 | 1007.9 |
| 20260506180123 | 60 | 219 | 7.8 | 13.0 | 0.00 | 0.31 | 0.31 | 57 | 1007.8 |
| 20260506180044 | 60 | 184 | 7.8 | 15.6 | 0.00 | 0.31 | 0.31 | 58 | 1007.9 |
| 20260506175922 | 60 | 172 | 7.8 | 15.6 | 0.00 | 0.31 | 0.31 | 58 | 1007.8 |
| 20260506175820 | 60 | 195 | 8.7 | 15.6 | 0.00 | 0.31 | 0.31 | 57 | 1007.9 |
| 20260506175529 | 60 | 187 | 9.6 | 17.4 | 0.00 | 0.31 | 0.31 | 57 | 1007.8 |
| 20260506175419 | 60 | 211 | 9.6 | 17.4 | 0.00 | 0.31 | 0.31 | 57 | 1007.8 |
| 20260506175322 | 60 | 210 | 9.6 | 17.4 | 0.00 | 0.31 | 0.31 | 57 | 1007.8 |
| 20260506175120 | 60 | 224 | 9.6 | 17.4 | 0.00 | 0.31 | 0.31 | 56 | 1007.7 |
| 20260506175036 | 60 | 171 | 9.6 | 17.4 | 0.00 | 0.31 | 0.31 | 56 | 1007.9 |
| 20260506174819 | 60 | 202 | 9.6 | 16.5 | 0.00 | 0.31 | 0.31 | 56 | 1007.7 |
| 20260506174721 | 60 | 182 | 8.7 | 16.5 | 0.00 | 0.31 | 0.31 | 56 | 1007.8 |
| 20260506174619 | 60 | 187 | 9.6 | 16.5 | 0.00 | 0.31 | 0.31 | 56 | 1007.6 |
| 20260506174529 | 61 | 208 | 8.7 | 16.5 | 0.00 | 0.31 | 0.31 | 55 | 1007.5 |
| 20260506174420 | 61 | 196 | 8.7 | 15.6 | 0.00 | 0.31 | 0.31 | 55 | 1007.5 |
| 20260506174321 | 61 | 181 | 8.7 | 15.6 | 0.00 | 0.31 | 0.31 | 56 | 1007.5 |
| 20260506174221 | 61 | 228 | 8.7 | 14.8 | 0.00 | 0.31 | 0.31 | 55 | 1007.3 |
| 20260506174119 | 61 | 196 | 8.7 | 14.8 | 0.00 | 0.31 | 0.31 | 56 | 1007.4 |
| 20260506174036 | 61 | 170 | 8.7 | 14.8 | 0.00 | 0.31 | 0.31 | 56 | 1007.3 |
| 20260506173921 | 61 | 190 | 8.7 | 14.8 | 0.00 | 0.31 | 0.31 | 55 | 1007.4 |
| 20260506173819 | 61 | 195 | 8.7 | 14.8 | 0.00 | 0.31 | 0.31 | 56 | 1007.4 |
| 20260506173619 | 61 | 188 | 9.6 | 17.4 | 0.00 | 0.31 | 0.31 | 56 | 1007.3 |
| 20260506173420 | 61 | 213 | 8.7 | 17.4 | 0.00 | 0.31 | 0.31 | 56 | 1007.3 |
| 20260506173322 | 61 | 182 | 8.7 | 17.4 | 0.00 | 0.31 | 0.31 | 56 | 1007.4 |
| 20260506173222 | 61 | 189 | 8.7 | 19.1 | 0.00 | 0.31 | 0.31 | 56 | 1007.5 |
| 20260506173120 | 61 | 207 | 9.6 | 19.1 | 0.00 | 0.31 | 0.31 | 56 | 1007.4 |
| 20260506173039 | 61 | 196 | 9.6 | 19.1 | 0.00 | 0.31 | 0.31 | 56 | 1007.3 |
| 20260506172922 | 61 | 187 | 9.6 | 19.1 | 0.00 | 0.31 | 0.31 | 56 | 1007.2 |
| 20260506172819 | 61 | 220 | 9.6 | 19.1 | 0.00 | 0.31 | 0.31 | 56 | 1007.2 |
| 20260506172719 | 61 | 197 | 9.6 | 19.1 | 0.00 | 0.31 | 0.31 | 57 | 1007.2 |
| 20260506172621 | 61 | 203 | 9.6 | 19.1 | 0.00 | 0.31 | 0.31 | 57 | 1007.1 |
| 20260506172419 | 61 | 202 | 9.6 | 19.1 | 0.00 | 0.31 | 0.31 | 56 | 1007.1 |
| 20260506172319 | 61 | 159 | 9.6 | 19.1 | 0.00 | 0.31 | 0.31 | 55 | 1007.0 |
| 20260506172222 | 61 | 202 | 9.6 | 19.1 | 0.00 | 0.31 | 0.31 | 54 | 1007.0 |
| 20260506172119 | 61 | 190 | 9.6 | 19.1 | 0.00 | 0.31 | 0.31 | 55 | 1007.0 |
| 20260506172036 | 62 | 169 | 9.6 | 19.1 | 0.00 | 0.31 | 0.31 | 55 | 1006.9 |
| 20260506171920 | 62 | 185 | 10.4 | 19.1 | 0.00 | 0.31 | 0.31 | 54 | 1007.0 |
| 20260506171821 | 62 | 161 | 10.4 | 18.2 | 0.00 | 0.31 | 0.31 | 55 | 1006.9 |
| 20260506171719 | 62 | 184 | 11.3 | 19.1 | 0.00 | 0.31 | 0.31 | 54 | 1007.0 |
| 20260506171528 | 62 | 166 | 12.2 | 19.1 | 0.00 | 0.31 | 0.31 | 54 | 1007.0 |
| 20260506171320 | 62 | 174 | 13.0 | 24.3 | 0.00 | 0.31 | 0.31 | 53 | 1006.9 |
| 20260506171219 | 62 | 176 | 13.0 | 24.3 | 0.00 | 0.31 | 0.31 | 53 | 1006.9 |
| 20260506171119 | 62 | 188 | 13.0 | 24.3 | 0.00 | 0.31 | 0.31 | 53 | 1006.9 |
| 20260506171041 | 62 | 187 | 13.0 | 24.3 | 0.00 | 0.31 | 0.31 | 53 | 1006.8 |
| 20260506170919 | 62 | 194 | 12.2 | 24.3 | 0.00 | 0.31 | 0.31 | 52 | 1006.8 |
| 20260506170821 | 62 | 202 | 11.3 | 24.3 | 0.00 | 0.31 | 0.31 | 52 | 1006.8 |
| 20260506170621 | 62 | 207 | 11.3 | 24.3 | 0.00 | 0.31 | 0.31 | 52 | 1006.8 |
| 20260506170527 | 62 | 186 | 10.4 | 24.3 | 0.00 | 0.31 | 0.31 | 52 | 1006.9 |
| 20260506170421 | 62 | 192 | 10.4 | 19.1 | 0.00 | 0.31 | 0.31 | 52 | 1006.8 |
| 20260506170320 | 62 | 213 | 10.4 | 19.1 | 0.00 | 0.31 | 0.31 | 52 | 1006.9 |
| 20260506170219 | 63 | 202 | 9.6 | 19.1 | 0.00 | 0.31 | 0.31 | 52 | 1006.7 |
| 20260506170122 | 63 | 234 | 8.7 | 19.1 | 0.00 | 0.31 | 0.31 | 51 | 1006.7 |
| 20260506170043 | 63 | 204 | 8.7 | 19.1 | 0.00 | 0.31 | 0.31 | 51 | 1006.6 |
| 20260506165920 | 63 | 193 | 8.7 | 19.1 | 0.00 | 0.31 | 0.31 | 53 | 1006.7 |
| 20260506165819 | 63 | 206 | 8.7 | 18.2 | 0.00 | 0.31 | 0.31 | 52 | 1006.7 |
| 20260506165722 | 63 | 153 | 8.7 | 18.2 | 0.00 | 0.31 | 0.31 | 52 | 1006.8 |
| 20260506165529 | 63 | 170 | 7.8 | 18.2 | 0.00 | 0.31 | 0.31 | 51 | 1006.8 |
| 20260506165419 | 63 | 203 | 7.8 | 16.5 | 0.00 | 0.31 | 0.31 | 51 | 1006.7 |
| 20260506165320 | 63 | 213 | 7.8 | 13.9 | 0.00 | 0.31 | 0.31 | 53 | 1006.7 |
| 20260506165220 | 63 | 197 | 8.7 | 21.7 | 0.00 | 0.31 | 0.31 | 53 | 1006.8 |
| 20260506165038 | 63 | 194 | 8.7 | 21.7 | 0.00 | 0.31 | 0.31 | 53 | 1006.7 |
| 20260506164919 | 63 | 188 | 8.7 | 21.7 | 0.00 | 0.31 | 0.31 | 52 | 1006.8 |
| 20260506164819 | 63 | 188 | 8.7 | 21.7 | 0.00 | 0.31 | 0.31 | 52 | 1006.7 |
| 20260506164529 | 63 | 203 | 9.6 | 21.7 | 0.00 | 0.31 | 0.31 | 52 | 1006.6 |
| 20260506164419 | 63 | 169 | 9.6 | 21.7 | 0.00 | 0.31 | 0.31 | 51 | 1006.8 |
| 20260506164320 | 63 | 207 | 9.6 | 18.2 | 0.00 | 0.31 | 0.31 | 51 | 1006.7 |
| 20260506164219 | 63 | 169 | 9.6 | 18.2 | 0.00 | 0.31 | 0.31 | 52 | 1006.8 |
| 20260506164121 | 63 | 196 | 9.6 | 18.2 | 0.00 | 0.31 | 0.31 | 52 | 1006.8 |
| 20260506164037 | 63 | 196 | 8.7 | 18.2 | 0.00 | 0.31 | 0.31 | 52 | 1006.7 |
| 20260506163919 | 63 | 200 | 8.7 | 18.2 | 0.00 | 0.31 | 0.31 | 51 | 1006.8 |
| 20260506163819 | 64 | 205 | 9.6 | 18.2 | 0.00 | 0.31 | 0.31 | 51 | 1006.7 |
| 20260506163722 | 64 | 188 | 9.6 | 18.2 | 0.00 | 0.31 | 0.31 | 50 | 1006.7 |
| 20260506163529 | 64 | 176 | 8.7 | 20.0 | 0.00 | 0.31 | 0.31 | 50 | 1006.7 |
| 20260506163420 | 64 | 178 | 7.8 | 20.0 | 0.00 | 0.31 | 0.31 | 51 | 1006.6 |
| 20260506163320 | 64 | 206 | 7.8 | 20.0 | 0.00 | 0.31 | 0.31 | 52 | 1006.6 |
| 20260506163219 | 64 | 226 | 7.8 | 20.0 | 0.00 | 0.31 | 0.31 | 51 | 1006.7 |
| 20260506163038 | 64 | 209 | 7.8 | 20.0 | 0.00 | 0.31 | 0.31 | 52 | 1006.7 |
| 20260506162919 | 64 | 178 | 7.8 | 20.0 | 0.00 | 0.31 | 0.31 | 51 | 1006.7 |
| 20260506162705 | 64 | 182 | 8.7 | 14.8 | 0.00 | 0.31 | 0.31 | 52 | 1006.7 |
| 20260506162603 | 64 | 200 | 8.7 | 14.8 | 0.00 | 0.31 | 0.31 | 52 | 1006.7 |
| 20260506162527 | 64 | 200 | 8.7 | 14.8 | 0.00 | 0.31 | 0.31 | 52 | 1006.7 |
| 20260506162421 | 65 | 192 | 8.7 | 16.5 | 0.00 | 0.31 | 0.31 | 52 | 1006.7 |
| 20260506162039 | 65 | 213 | 9.6 | 16.5 | 0.00 | 0.31 | 0.31 | 50 | 1006.6 |
| 20260506161821 | 65 | 182 | 9.6 | 16.5 | 0.00 | 0.31 | 0.31 | 50 | 1006.7 |
| 20260506161719 | 65 | 227 | 8.7 | 16.5 | 0.00 | 0.31 | 0.31 | 50 | 1006.7 |
| 20260506161527 | 65 | 205 | 7.8 | 15.6 | 0.00 | 0.31 | 0.31 | 49 | 1006.7 |
| 20260506161320 | 65 | 198 | 7.8 | 15.6 | 0.00 | 0.31 | 0.31 | 51 | 1006.8 |
| 20260506161219 | 65 | 190 | 7.0 | 15.6 | 0.00 | 0.31 | 0.31 | 50 | 1006.8 |
| 20260506161119 | 65 | 180 | 6.1 | 12.2 | 0.00 | 0.31 | 0.31 | 49 | 1006.7 |
| 20260506161039 | 65 | 205 | 6.1 | 12.2 | 0.00 | 0.31 | 0.31 | 49 | 1006.8 |
| 20260506160919 | 65 | 198 | 7.0 | 10.4 | 0.00 | 0.31 | 0.31 | 49 | 1006.7 |
| 20260506160821 | 65 | 214 | 7.0 | 14.8 | 0.00 | 0.31 | 0.31 | 51 | 1006.7 |
| 20260506160719 | 65 | 198 | 7.0 | 18.2 | 0.00 | 0.31 | 0.31 | 51 | 1006.7 |
| 20260506160620 | 65 | 165 | 7.8 | 18.2 | 0.00 | 0.31 | 0.31 | 52 | 1006.7 |
| 20260506160528 | 65 | 142 | 7.0 | 18.2 | 0.00 | 0.31 | 0.31 | 52 | 1006.7 |
| 20260506160421 | 65 | 219 | 7.8 | 18.2 | 0.00 | 0.31 | 0.31 | 51 | 1006.5 |
| 20260506160321 | 65 | 196 | 7.8 | 18.2 | 0.00 | 0.31 | 0.31 | 51 | 1006.7 |
| 20260506160219 | 65 | 194 | 7.8 | 18.2 | 0.00 | 0.31 | 0.31 | 51 | 1006.7 |
| 20260506160042 | 65 | 178 | 9.6 | 18.2 | 0.00 | 0.31 | 0.31 | 48 | 1006.7 |
| 20260506155919 | 65 | 189 | 8.7 | 21.7 | 0.00 | 0.31 | 0.31 | 50 | 1006.8 |
| 20260506155819 | 65 | 175 | 7.8 | 17.4 | 0.00 | 0.31 | 0.31 | 50 | 1006.7 |
| 20260506155722 | 65 | 181 | 7.8 | 17.4 | 0.00 | 0.31 | 0.31 | 50 | 1006.8 |
| 20260506155620 | 65 | 192 | 7.8 | 15.6 | 0.00 | 0.31 | 0.31 | 50 | 1006.8 |
| 20260506155527 | 65 | 200 | 8.7 | 15.6 | 0.00 | 0.31 | 0.31 | 51 | 1006.7 |
| 20260506155421 | 66 | 188 | 8.7 | 15.6 | 0.00 | 0.31 | 0.31 | 50 | 1006.8 |
| 20260506155321 | 66 | 180 | 8.7 | 15.6 | 0.00 | 0.31 | 0.31 | 51 | 1006.6 |
| 20260506155219 | 66 | 191 | 8.7 | 15.6 | 0.00 | 0.31 | 0.31 | 49 | 1006.7 |
| 20260506155038 | 66 | 194 | 8.7 | 15.6 | 0.00 | 0.31 | 0.31 | 50 | 1006.8 |
| 20260506154919 | 66 | 194 | 8.7 | 14.8 | 0.00 | 0.31 | 0.31 | 50 | 1006.7 |
| 20260506154820 | 66 | 153 | 9.6 | 14.8 | 0.00 | 0.31 | 0.31 | 49 | 1006.7 |
| 20260506154723 | 66 | 178 | 9.6 | 14.8 | 0.00 | 0.31 | 0.31 | 48 | 1006.8 |
| 20260506154420 | 66 | 193 | 9.6 | 16.5 | 0.00 | 0.31 | 0.31 | 47 | 1006.7 |
| 20260506154221 | 66 | 217 | 9.6 | 16.5 | 0.00 | 0.31 | 0.31 | 47 | 1006.6 |
| 20260506154120 | 66 | 202 | 9.6 | 16.5 | 0.00 | 0.31 | 0.31 | 48 | 1006.8 |
| 20260506154037 | 66 | 185 | 9.6 | 20.0 | 0.00 | 0.31 | 0.31 | 50 | 1006.8 |
| 20260506153821 | 66 | 185 | 9.6 | 20.0 | 0.00 | 0.31 | 0.31 | 47 | 1006.6 |
| 20260506153704 | 66 | 185 | 8.7 | 20.0 | 0.00 | 0.31 | 0.31 | 47 | 1006.7 |
| 20260506153603 | 66 | 182 | 8.7 | 20.0 | 0.00 | 0.31 | 0.31 | 47 | 1006.7 |
| 20260506153502 | 66 | 224 | 8.7 | 20.0 | 0.00 | 0.31 | 0.31 | 48 | 1006.6 |
| 20260506153404 | 66 | 196 | 8.7 | 20.0 | 0.00 | 0.31 | 0.31 | 48 | 1006.6 |
| 20260506153302 | 66 | 144 | 8.7 | 20.0 | 0.00 | 0.31 | 0.31 | 47 | 1006.7 |
| 20260506153203 | 66 | 163 | 7.8 | 20.0 | 0.00 | 0.31 | 0.31 | 46 | 1006.7 |
| 20260506153102 | 67 | 194 | 7.8 | 13.9 | 0.00 | 0.31 | 0.31 | 48 | 1006.7 |
| 20260506153005 | 67 | 197 | 7.0 | 15.6 | 0.00 | 0.31 | 0.31 | 47 | 1006.6 |
| 20260506152902 | 67 | 143 | 7.0 | 13.0 | 0.00 | 0.31 | 0.31 | 48 | 1006.8 |
| 20260506152802 | 67 | 190 | 6.1 | 12.2 | 0.00 | 0.31 | 0.31 | 48 | 1006.8 |
| 20260506152704 | 67 | 179 | 6.1 | 12.2 | 0.00 | 0.31 | 0.31 | 49 | 1006.8 |
| 20260506152502 | 67 | 192 | 6.1 | 11.3 | 0.00 | 0.31 | 0.31 | 49 | 1006.7 |
| 20260506152402 | 67 | 205 | 6.1 | 9.6 | 0.00 | 0.31 | 0.31 | 48 | 1006.7 |
| 20260506152102 | 67 | 211 | 6.1 | 11.3 | 0.00 | 0.31 | 0.31 | 50 | 1006.7 |
| 20260506152004 | 67 | 237 | 6.1 | 11.3 | 0.00 | 0.31 | 0.31 | 48 | 1006.8 |
| 20260506151904 | 67 | 199 | 7.0 | 11.3 | 0.00 | 0.31 | 0.31 | 48 | 1006.7 |
| 20260506151704 | 67 | 229 | 7.8 | 11.3 | 0.00 | 0.31 | 0.31 | 49 | 1006.8 |
| 20260506151602 | 67 | 190 | 7.8 | 13.9 | 0.00 | 0.31 | 0.31 | 48 | 1006.8 |
| 20260506151502 | 67 | 200 | 7.8 | 17.4 | 0.00 | 0.31 | 0.31 | 49 | 1006.8 |
| 20260506151402 | 67 | 169 | 7.8 | 17.4 | 0.00 | 0.31 | 0.31 | 50 | 1006.8 |
| 20260506151304 | 67 | 194 | 7.8 | 17.4 | 0.00 | 0.31 | 0.31 | 48 | 1006.8 |
| 20260506151204 | 67 | 194 | 7.0 | 17.4 | 0.00 | 0.31 | 0.31 | 47 | 1006.9 |
| 20260506151102 | 67 | 215 | 7.0 | 17.4 | 0.00 | 0.31 | 0.31 | 49 | 1006.7 |
| 20260506151004 | 67 | 187 | 7.0 | 17.4 | 0.00 | 0.31 | 0.31 | 47 | 1006.8 |
| 20260506150906 | 67 | 198 | 7.0 | 17.4 | 0.00 | 0.31 | 0.31 | 49 | 1006.9 |
| 20260506150802 | 67 | 171 | 6.1 | 17.4 | 0.00 | 0.31 | 0.31 | 49 | 1006.8 |
| 20260506150604 | 67 | 192 | 6.1 | 13.9 | 0.00 | 0.31 | 0.31 | 48 | 1006.8 |
| 20260506150504 | 67 | 209 | 6.1 | 13.9 | 0.00 | 0.31 | 0.31 | 48 | 1006.9 |
| 20260506150402 | 67 | 191 | 7.0 | 13.9 | 0.00 | 0.31 | 0.31 | 49 | 1006.9 |
| 20260506150221 | 67 | 193 | 7.0 | 13.9 | 0.00 | 0.31 | 0.31 | 49 | 1006.9 |
| 20260506150119 | 67 | 223 | 7.0 | 13.9 | 0.00 | 0.31 | 0.31 | 49 | 1006.9 |
| 20260506150039 | 67 | 196 | 7.0 | 13.9 | 0.00 | 0.31 | 0.31 | 47 | 1006.9 |
| 20260506145819 | 67 | 189 | 7.0 | 13.9 | 0.00 | 0.31 | 0.31 | 49 | 1006.9 |
| 20260506145721 | 67 | 188 | 7.0 | 13.9 | 0.00 | 0.31 | 0.31 | 47 | 1007.0 |
| 20260506145619 | 67 | 185 | 6.1 | 13.9 | 0.00 | 0.31 | 0.31 | 50 | 1007.0 |
| 20260506145419 | 67 | 178 | 6.1 | 11.3 | 0.00 | 0.31 | 0.31 | 49 | 1007.0 |
| 20260506145321 | 67 | 194 | 6.1 | 11.3 | 0.00 | 0.31 | 0.31 | 47 | 1006.9 |
| 20260506145220 | 67 | 210 | 6.1 | 11.3 | 0.00 | 0.31 | 0.31 | 48 | 1006.9 |
| 20260506145036 | 67 | 171 | 5.2 | 11.3 | 0.00 | 0.31 | 0.31 | 50 | 1007.1 |
| 20260506144922 | 67 | 186 | 4.3 | 13.0 | 0.00 | 0.31 | 0.31 | 50 | 1007.0 |
| 20260506144819 | 67 | 207 | 4.3 | 10.4 | 0.00 | 0.31 | 0.31 | 49 | 1007.1 |
| 20260506144721 | 67 | 205 | 4.3 | 10.4 | 0.00 | 0.31 | 0.31 | 50 | 1007.0 |
| 20260506144620 | 67 | 196 | 4.3 | 10.4 | 0.00 | 0.31 | 0.31 | 49 | 1007.0 |
| 20260506144528 | 67 | 192 | 4.3 | 12.2 | 0.00 | 0.31 | 0.31 | 51 | 1007.1 |
| 20260506144220 | 67 | 196 | 5.2 | 15.6 | 0.00 | 0.31 | 0.31 | 51 | 1007.0 |
| 20260506144119 | 67 | 189 | 5.2 | 15.6 | 0.00 | 0.31 | 0.31 | 51 | 1007.1 |
| 20260506143922 | 67 | 214 | 6.1 | 15.6 | 0.00 | 0.31 | 0.31 | 51 | 1007.0 |
| 20260506143819 | 67 | 225 | 6.1 | 15.6 | 0.00 | 0.31 | 0.31 | 49 | 1007.1 |
| 20260506143721 | 67 | 194 | 6.1 | 15.6 | 0.00 | 0.31 | 0.31 | 49 | 1007.1 |
| 20260506143621 | 67 | 215 | 5.2 | 15.6 | 0.00 | 0.31 | 0.31 | 53 | 1007.3 |
| 20260506143419 | 67 | 169 | 5.2 | 15.6 | 0.00 | 0.31 | 0.31 | 50 | 1007.1 |
| 20260506143319 | 67 | 183 | 5.2 | 11.3 | 0.00 | 0.31 | 0.31 | 53 | 1007.0 |
| 20260506143222 | 67 | 208 | 5.2 | 14.8 | 0.00 | 0.31 | 0.31 | 52 | 1007.2 |
| 20260506143119 | 67 | 185 | 6.1 | 14.8 | 0.00 | 0.31 | 0.31 | 51 | 1007.0 |
| 20260506143037 | 67 | 167 | 6.1 | 14.8 | 0.00 | 0.31 | 0.31 | 50 | 1007.2 |
| 20260506142922 | 67 | 194 | 6.1 | 14.8 | 0.00 | 0.31 | 0.31 | 53 | 1007.1 |
| 20260506142819 | 67 | 272 | 6.1 | 14.8 | 0.00 | 0.31 | 0.31 | 51 | 1007.1 |
| 20260506142719 | 67 | 241 | 7.0 | 14.8 | 0.00 | 0.31 | 0.31 | 51 | 1007.3 |
| 20260506142621 | 67 | 213 | 7.0 | 14.8 | 0.00 | 0.31 | 0.31 | 49 | 1007.1 |
| 20260506142529 | 67 | 207 | 7.0 | 14.8 | 0.00 | 0.31 | 0.31 | 55 | 1007.2 |
| 20260506142419 | 67 | 169 | 7.0 | 14.8 | 0.00 | 0.31 | 0.31 | 51 | 1007.3 |
| 20260506142322 | 67 | 162 | 7.0 | 13.9 | 0.00 | 0.31 | 0.31 | 53 | 1007.2 |
| 20260506142219 | 67 | 196 | 7.0 | 13.9 | 0.00 | 0.31 | 0.31 | 50 | 1007.2 |
| 20260506142122 | 67 | 209 | 7.8 | 13.9 | 0.00 | 0.31 | 0.31 | 50 | 1007.2 |
| 20260506141919 | 67 | 159 | 7.8 | 13.9 | 0.00 | 0.31 | 0.31 | 51 | 1007.2 |
| 20260506141819 | 67 | 191 | 7.0 | 13.9 | 0.00 | 0.31 | 0.31 | 53 | 1007.3 |
| 20260506141722 | 67 | 200 | 7.0 | 13.9 | 0.00 | 0.31 | 0.31 | 52 | 1007.2 |
| 20260506141619 | 67 | 195 | 7.0 | 13.9 | 0.00 | 0.31 | 0.31 | 51 | 1007.2 |
| 20260506141529 | 67 | 158 | 7.0 | 13.0 | 0.00 | 0.31 | 0.31 | 52 | 1007.3 |
| 20260506141419 | 67 | 168 | 7.0 | 13.0 | 0.00 | 0.31 | 0.31 | 52 | 1007.2 |
| 20260506141321 | 67 | 148 | 7.0 | 13.0 | 0.00 | 0.31 | 0.31 | 53 | 1007.3 |
| 20260506141219 | 67 | 180 | 7.8 | 13.0 | 0.00 | 0.31 | 0.31 | 51 | 1007.2 |
| 20260506141121 | 67 | 254 | 7.8 | 14.8 | 0.00 | 0.31 | 0.31 | 52 | 1007.2 |
| 20260506141038 | 67 | 171 | 7.8 | 14.8 | 0.00 | 0.31 | 0.31 | 50 | 1007.2 |
| 20260506140919 | 67 | 176 | 7.8 | 14.8 | 0.00 | 0.31 | 0.31 | 55 | 1007.3 |
| 20260506140819 | 67 | 181 | 7.8 | 14.8 | 0.00 | 0.31 | 0.31 | 53 | 1007.4 |
| 20260506140619 | 67 | 196 | 7.0 | 14.8 | 0.00 | 0.31 | 0.31 | 52 | 1007.3 |
| 20260506140528 | 67 | 182 | 7.8 | 14.8 | 0.00 | 0.31 | 0.31 | 55 | 1007.4 |
| 20260506140321 | 67 | 182 | 7.0 | 14.8 | 0.00 | 0.31 | 0.31 | 53 | 1007.3 |
| 20260506140219 | 67 | 190 | 7.0 | 14.8 | 0.00 | 0.31 | 0.31 | 52 | 1007.4 |
| 20260506140040 | 67 | 159 | 6.1 | 14.8 | 0.00 | 0.31 | 0.31 | 52 | 1007.3 |
| 20260506135919 | 67 | 188 | 7.0 | 14.8 | 0.00 | 0.31 | 0.31 | 54 | 1007.4 |
| 20260506135821 | 67 | 198 | 7.0 | 14.8 | 0.00 | 0.31 | 0.31 | 52 | 1007.3 |
| 20260506135720 | 67 | 198 | 7.0 | 14.8 | 0.00 | 0.31 | 0.31 | 50 | 1007.4 |
| 20260506135620 | 67 | 198 | 7.0 | 14.8 | 0.00 | 0.31 | 0.31 | 52 | 1007.4 |
| 20260506135527 | 67 | 213 | 7.8 | 14.8 | 0.00 | 0.31 | 0.31 | 52 | 1007.4 |
| 20260506135421 | 67 | 207 | 7.8 | 14.8 | 0.00 | 0.31 | 0.31 | 50 | 1007.4 |
| 20260506135319 | 67 | 222 | 7.8 | 13.9 | 0.00 | 0.31 | 0.31 | 53 | 1007.4 |
| 20260506135220 | 67 | 197 | 7.8 | 13.9 | 0.00 | 0.31 | 0.31 | 54 | 1007.4 |
| 20260506135037 | 67 | 186 | 8.7 | 15.6 | 0.00 | 0.31 | 0.31 | 53 | 1007.4 |
| 20260506134919 | 67 | 191 | 8.7 | 15.6 | 0.00 | 0.31 | 0.31 | 52 | 1007.5 |
| 20260506134821 | 67 | 186 | 8.7 | 15.6 | 0.00 | 0.31 | 0.31 | 54 | 1007.4 |
| 20260506134720 | 67 | 152 | 8.7 | 15.6 | 0.00 | 0.31 | 0.31 | 54 | 1007.4 |
| 20260506134619 | 67 | 211 | 9.6 | 15.6 | 0.00 | 0.31 | 0.31 | 52 | 1007.5 |
| 20260506134319 | 67 | 199 | 8.7 | 15.6 | 0.00 | 0.31 | 0.31 | 55 | 1007.5 |
| 20260506134221 | 67 | 178 | 8.7 | 15.6 | 0.00 | 0.31 | 0.31 | 53 | 1007.5 |
| 20260506134119 | 67 | 192 | 8.7 | 15.6 | 0.00 | 0.31 | 0.31 | 55 | 1007.5 |
| 20260506134038 | 67 | 203 | 7.8 | 14.8 | 0.00 | 0.31 | 0.31 | 55 | 1007.6 |
| 20260506133720 | 67 | 184 | 7.8 | 16.5 | 0.00 | 0.31 | 0.31 | 54 | 1007.7 |
| 20260506133502 | 67 | 191 | 8.7 | 17.4 | 0.00 | 0.31 | 0.31 | 53 | 1007.6 |
| 20260506133404 | 67 | 187 | 7.8 | 17.4 | 0.00 | 0.31 | 0.31 | 54 | 1007.6 |
| 20260506133302 | 67 | 205 | 7.8 | 17.4 | 0.00 | 0.31 | 0.31 | 55 | 1007.6 |
| 20260506133202 | 67 | 194 | 7.8 | 17.4 | 0.00 | 0.31 | 0.31 | 54 | 1007.5 |
| 20260506133106 | 67 | 194 | 7.8 | 17.4 | 0.00 | 0.31 | 0.31 | 56 | 1007.6 |
| 20260506133004 | 67 | 218 | 8.7 | 17.4 | 0.00 | 0.31 | 0.31 | 57 | 1007.6 |
| 20260506132902 | 67 | 156 | 7.8 | 17.4 | 0.00 | 0.31 | 0.31 | 54 | 1007.6 |
| 20260506132802 | 67 | 184 | 7.8 | 18.2 | 0.00 | 0.31 | 0.31 | 54 | 1007.6 |
| 20260506132602 | 67 | 184 | 7.0 | 15.6 | 0.00 | 0.31 | 0.31 | 55 | 1007.6 |
| 20260506132527 | 67 | 162 | 7.0 | 15.6 | 0.00 | 0.31 | 0.31 | 57 | 1007.6 |
| 20260506132006 | 67 | 144 | 7.0 | 15.6 | 0.00 | 0.31 | 0.31 | 57 | 1007.6 |
| 20260506131902 | 67 | 195 | 7.8 | 13.0 | 0.00 | 0.31 | 0.31 | 57 | 1007.5 |
| 20260506131803 | 67 | 209 | 7.8 | 13.0 | 0.00 | 0.31 | 0.31 | 56 | 1007.6 |
| 20260506131703 | 67 | 175 | 7.8 | 14.8 | 0.00 | 0.31 | 0.31 | 57 | 1007.5 |
| 20260506131606 | 67 | 193 | 7.8 | 14.8 | 0.00 | 0.31 | 0.31 | 56 | 1007.5 |
| 20260506131506 | 67 | 203 | 7.8 | 14.8 | 0.00 | 0.31 | 0.31 | 56 | 1007.7 |
| 20260506131420 | 67 | 201 | 7.8 | 14.8 | 0.00 | 0.31 | 0.31 | 58 | 1007.7 |
| 20260506131321 | 67 | 174 | 7.0 | 20.0 | 0.00 | 0.31 | 0.31 | 58 | 1007.5 |
| 20260506131220 | 67 | 188 | 7.0 | 20.0 | 0.00 | 0.31 | 0.31 | 58 | 1007.6 |
| 20260506131119 | 67 | 159 | 7.8 | 20.0 | 0.00 | 0.31 | 0.31 | 60 | 1007.5 |
| 20260506131003 | 67 | 235 | 7.8 | 20.0 | 0.00 | 0.31 | 0.31 | 56 | 1007.6 |
| 20260506130904 | 67 | 153 | 8.7 | 20.0 | 0.00 | 0.31 | 0.31 | 57 | 1007.7 |
| 20260506130802 | 67 | 190 | 7.8 | 20.0 | 0.00 | 0.31 | 0.31 | 55 | 1007.7 |
| 20260506130702 | 67 | 186 | 7.8 | 20.0 | 0.00 | 0.31 | 0.31 | 58 | 1007.6 |
| 20260506130602 | 67 | 194 | 7.8 | 20.0 | 0.00 | 0.31 | 0.31 | 58 | 1007.6 |
| 20260506130505 | 67 | 135 | 7.8 | 19.1 | 0.00 | 0.31 | 0.31 | 58 | 1007.6 |
| 20260506130402 | 67 | 179 | 8.7 | 15.6 | 0.00 | 0.31 | 0.31 | 61 | 1007.5 |
| 20260506130302 | 66 | 173 | 8.7 | 15.6 | 0.00 | 0.31 | 0.31 | 58 | 1007.5 |
| 20260506130202 | 67 | 186 | 7.8 | 16.5 | 0.00 | 0.31 | 0.31 | 57 | 1007.6 |
| 20260506130106 | 67 | 160 | 7.8 | 17.4 | 0.00 | 0.31 | 0.31 | 58 | 1007.5 |
| 20260506130005 | 67 | 169 | 7.8 | 17.4 | 0.00 | 0.31 | 0.31 | 58 | 1007.5 |
| 20260506125901 | 67 | 192 | 7.8 | 17.4 | 0.00 | 0.31 | 0.31 | 57 | 1007.6 |
| 20260506125701 | 67 | 181 | 7.8 | 17.4 | 0.00 | 0.31 | 0.31 | 58 | 1007.7 |
| 20260506125601 | 67 | 190 | 7.8 | 17.4 | 0.00 | 0.31 | 0.31 | 59 | 1007.7 |
| 20260506125501 | 66 | 192 | 7.8 | 17.4 | 0.00 | 0.31 | 0.31 | 58 | 1007.8 |
| 20260506125304 | 67 | 155 | 7.8 | 14.8 | 0.00 | 0.31 | 0.31 | 58 | 1007.7 |
| 20260506125201 | 67 | 193 | 7.8 | 12.2 | 0.00 | 0.31 | 0.31 | 55 | 1007.6 |
| 20260506125104 | 67 | 199 | 7.8 | 12.2 | 0.00 | 0.31 | 0.31 | 56 | 1007.7 |
| 20260506125004 | 67 | 171 | 7.8 | 16.5 | 0.00 | 0.31 | 0.31 | 56 | 1007.7 |
| 20260506124902 | 67 | 187 | 7.8 | 16.5 | 0.00 | 0.31 | 0.31 | 59 | 1007.7 |
| 20260506124704 | 67 | 177 | 7.8 | 16.5 | 0.00 | 0.31 | 0.31 | 59 | 1007.6 |
| 20260506124601 | 67 | 181 | 8.7 | 16.5 | 0.00 | 0.31 | 0.31 | 61 | 1007.6 |
| 20260506124502 | 66 | 183 | 8.7 | 16.5 | 0.00 | 0.31 | 0.31 | 57 | 1007.6 |
| 20260506124407 | 66 | 144 | 8.7 | 16.5 | 0.00 | 0.31 | 0.31 | 59 | 1007.6 |
| 20260506124323 | 66 | 182 | 9.6 | 16.5 | 0.00 | 0.31 | 0.31 | 59 | 1007.6 |
| 20260506124219 | 66 | 186 | 9.6 | 16.5 | 0.00 | 0.31 | 0.31 | 58 | 1007.7 |
| 20260506124123 | 66 | 181 | 9.6 | 16.5 | 0.00 | 0.31 | 0.31 | 59 | 1007.5 |
| 20260506124037 | 66 | 186 | 9.6 | 16.5 | 0.00 | 0.31 | 0.31 | 61 | 1007.6 |
| 20260506123718 | 66 | 190 | 9.6 | 16.5 | 0.00 | 0.31 | 0.31 | 58 | 1007.5 |
| 20260506123620 | 66 | 180 | 9.6 | 16.5 | 0.00 | 0.31 | 0.31 | 58 | 1007.7 |
| 20260506123319 | 66 | 173 | 8.7 | 16.5 | 0.00 | 0.31 | 0.31 | 61 | 1007.6 |
| 20260506123118 | 66 | 182 | 8.7 | 16.5 | 0.00 | 0.31 | 0.31 | 62 | 1007.6 |
| 20260506123037 | 66 | 198 | 8.7 | 16.5 | 0.00 | 0.31 | 0.31 | 58 | 1007.5 |
| 20260506122918 | 66 | 202 | 8.7 | 16.5 | 0.00 | 0.31 | 0.31 | 62 | 1007.6 |
| 20260506122821 | 66 | 159 | 8.7 | 18.2 | 0.00 | 0.31 | 0.31 | 60 | 1007.7 |
| 20260506122718 | 66 | 187 | 8.7 | 18.2 | 0.00 | 0.31 | 0.31 | 58 | 1007.6 |
| 20260506122526 | 66 | 202 | 8.7 | 18.2 | 0.00 | 0.31 | 0.31 | 61 | 1007.6 |
| 20260506122419 | 66 | 161 | 9.6 | 18.2 | 0.00 | 0.31 | 0.31 | 61 | 1007.5 |
| 20260506122218 | 66 | 202 | 9.6 | 18.2 | 0.00 | 0.31 | 0.31 | 62 | 1007.5 |
| 20260506122118 | 66 | 159 | 9.6 | 18.2 | 0.00 | 0.31 | 0.31 | 63 | 1007.5 |
| 20260506122037 | 66 | 200 | 9.6 | 18.2 | 0.00 | 0.31 | 0.31 | 61 | 1007.5 |
| 20260506121918 | 66 | 190 | 9.6 | 18.2 | 0.00 | 0.31 | 0.31 | 63 | 1007.4 |
| 20260506121820 | 66 | 211 | 9.6 | 18.2 | 0.00 | 0.31 | 0.31 | 61 | 1007.6 |
| 20260506121718 | 66 | 172 | 9.6 | 18.2 | 0.00 | 0.31 | 0.31 | 64 | 1007.5 |
| 20260506121420 | 66 | 224 | 9.6 | 17.4 | 0.00 | 0.31 | 0.31 | 62 | 1007.4 |
| 20260506121320 | 66 | 163 | 10.4 | 17.4 | 0.00 | 0.31 | 0.31 | 62 | 1007.5 |
| 20260506121218 | 66 | 211 | 10.4 | 17.4 | 0.00 | 0.31 | 0.31 | 62 | 1007.4 |
| 20260506121118 | 66 | 186 | 10.4 | 18.2 | 0.00 | 0.31 | 0.31 | 62 | 1007.6 |
| 20260506121037 | 66 | 198 | 9.6 | 18.2 | 0.00 | 0.31 | 0.31 | 64 | 1007.6 |
| 20260506120918 | 66 | 204 | 9.6 | 18.2 | 0.00 | 0.31 | 0.31 | 66 | 1007.5 |
| 20260506120820 | 65 | 205 | 8.7 | 18.2 | 0.00 | 0.31 | 0.31 | 65 | 1007.5 |
| 20260506120718 | 65 | 186 | 8.7 | 18.2 | 0.00 | 0.31 | 0.31 | 64 | 1007.5 |
| 20260506120619 | 65 | 219 | 7.8 | 18.2 | 0.00 | 0.31 | 0.31 | 64 | 1007.6 |
| 20260506120526 | 65 | 180 | 7.0 | 18.2 | 0.00 | 0.31 | 0.31 | 64 | 1007.6 |
| 20260506120420 | 65 | 155 | 6.1 | 18.2 | 0.00 | 0.31 | 0.31 | 65 | 1007.6 |
| 20260506120321 | 65 | 185 | 5.2 | 18.2 | 0.00 | 0.31 | 0.31 | 64 | 1007.6 |
| 20260506120218 | 64 | 170 | 4.3 | 13.0 | 0.00 | 0.31 | 0.31 | 67 | 1007.4 |
| 20260506120120 | 64 | 133 | 4.3 | 13.0 | 0.00 | 0.31 | 0.31 | 74 | 1007.6 |
| 20260506120041 | 64 | 210 | 5.2 | 13.0 | 0.00 | 0.31 | 0.31 | 74 | 1007.6 |
| 20260506115919 | 63 | 117 | 5.2 | 11.3 | 0.00 | 0.33 | 0.31 | 78 | 1007.6 |
| 20260506115821 | 63 | 63 | 5.2 | 11.3 | 0.00 | 0.33 | 0.31 | 80 | 1007.6 |
| 20260506115620 | 63 | 60 | 4.3 | 11.3 | 0.00 | 0.33 | 0.31 | 80 | 1007.7 |
| 20260506115527 | 63 | 50 | 4.3 | 11.3 | 0.00 | 0.33 | 0.31 | 81 | 1007.7 |
| 20260506115421 | 63 | 84 | 4.3 | 11.3 | 0.00 | 0.33 | 0.31 | 83 | 1007.6 |
| 20260506115321 | 63 | 69 | 4.3 | 11.3 | 0.00 | 0.33 | 0.31 | 81 | 1007.7 |
| 20260506115119 | 63 | 51 | 3.5 | 11.3 | 0.00 | 0.33 | 0.31 | 81 | 1007.7 |
| 20260506115038 | 63 | 62 | 3.5 | 9.6 | 0.00 | 0.33 | 0.31 | 84 | 1007.7 |
| 20260506114919 | 63 | 29 | 3.5 | 7.8 | 0.00 | 0.33 | 0.31 | 85 | 1007.6 |
| 20260506114821 | 63 | 5 | 3.5 | 7.8 | 0.00 | 0.33 | 0.31 | 85 | 1007.7 |
| 20260506114719 | 63 | 62 | 4.3 | 9.6 | 0.00 | 0.33 | 0.31 | 85 | 1007.8 |
| 20260506114622 | 62 | 62 | 4.3 | 9.6 | 0.00 | 0.33 | 0.31 | 85 | 1007.7 |
| 20260506114527 | 62 | 42 | 5.2 | 9.6 | 0.00 | 0.33 | 0.31 | 83 | 1007.7 |
| 20260506114421 | 62 | 42 | 5.2 | 9.6 | 0.00 | 0.33 | 0.31 | 84 | 1007.7 |
| 20260506114320 | 62 | 71 | 6.1 | 9.6 | 0.00 | 0.33 | 0.31 | 85 | 1007.7 |
| 20260506114119 | 62 | 37 | 7.0 | 12.2 | 0.00 | 0.33 | 0.31 | 85 | 1007.7 |
| 20260506114038 | 62 | 67 | 7.0 | 12.2 | 0.00 | 0.33 | 0.31 | 85 | 1007.8 |
| 20260506113919 | 61 | 24 | 7.8 | 12.2 | 0.00 | 0.33 | 0.31 | 85 | 1007.7 |
| 20260506113820 | 62 | 28 | 7.0 | 12.2 | 0.00 | 0.33 | 0.31 | 85 | 1007.8 |
| 20260506113719 | 62 | 39 | 7.0 | 12.2 | 0.00 | 0.33 | 0.31 | 85 | 1007.7 |
| 20260506113620 | 61 | 24 | 7.0 | 12.2 | 0.00 | 0.33 | 0.31 | 84 | 1007.8 |
| 20260506113527 | 62 | 28 | 7.0 | 12.2 | 0.00 | 0.33 | 0.31 | 83 | 1007.7 |
| 20260506113421 | 62 | 51 | 7.0 | 12.2 | 0.00 | 0.33 | 0.31 | 82 | 1007.8 |
| 20260506113320 | 62 | 36 | 6.1 | 12.2 | 0.00 | 0.33 | 0.31 | 83 | 1007.8 |
| 20260506113219 | 62 | 40 | 6.1 | 12.2 | 0.00 | 0.33 | 0.31 | 83 | 1007.7 |
| 20260506113119 | 62 | 67 | 5.2 | 12.2 | 0.00 | 0.33 | 0.31 | 82 | 1007.8 |
| 20260506113038 | 62 | 55 | 4.3 | 12.2 | 0.00 | 0.33 | 0.31 | 82 | 1007.8 |
| 20260506112919 | 63 | 46 | 4.3 | 10.4 | 0.00 | 0.33 | 0.31 | 83 | 1007.8 |
| 20260506112821 | 63 | 10 | 4.3 | 7.8 | 0.00 | 0.33 | 0.31 | 83 | 1007.8 |
| 20260506112719 | 62 | 32 | 3.5 | 7.8 | 0.00 | 0.33 | 0.31 | 84 | 1007.8 |
| 20260506112620 | 62 | 57 | 3.5 | 7.8 | 0.00 | 0.33 | 0.31 | 84 | 1007.8 |
| 20260506112527 | 62 | 13 | 3.5 | 7.0 | 0.00 | 0.33 | 0.31 | 84 | 1007.7 |
| 20260506112320 | 62 | 32 | 3.5 | 7.8 | 0.00 | 0.33 | 0.31 | 83 | 1007.7 |
| 20260506112219 | 61 | 28 | 4.3 | 8.7 | 0.00 | 0.33 | 0.31 | 83 | 1007.8 |
| 20260506112119 | 61 | 11 | 4.3 | 10.4 | 0.00 | 0.33 | 0.31 | 83 | 1007.8 |
| 20260506112038 | 61 | 57 | 5.2 | 10.4 | 0.00 | 0.33 | 0.31 | 83 | 1007.8 |
| 20260506111821 | 61 | 49 | 6.1 | 10.4 | 0.00 | 0.33 | 0.31 | 84 | 1007.8 |
| 20260506111621 | 61 | 5 | 7.0 | 10.4 | 0.00 | 0.33 | 0.31 | 84 | 1007.8 |
| 20260506111320 | 61 | 57 | 7.0 | 10.4 | 0.00 | 0.33 | 0.31 | 84 | 1007.8 |
| 20260506111219 | 61 | 54 | 7.0 | 10.4 | 0.00 | 0.33 | 0.31 | 84 | 1007.9 |
| 20260506111038 | 61 | 55 | 7.0 | 10.4 | 0.00 | 0.33 | 0.31 | 84 | 1007.8 |
| 20260506110820 | 61 | 55 | 7.0 | 10.4 | 0.00 | 0.33 | 0.31 | 85 | 1007.9 |
| 20260506110719 | 61 | 61 | 7.0 | 10.4 | 0.00 | 0.33 | 0.31 | 85 | 1007.9 |
| 20260506110621 | 61 | 62 | 7.0 | 10.4 | 0.00 | 0.33 | 0.31 | 84 | 1007.8 |
| 20260506110527 | 61 | 49 | 6.1 | 10.4 | 0.00 | 0.33 | 0.31 | 85 | 1007.9 |
| 20260506110421 | 61 | 74 | 7.0 | 10.4 | 0.00 | 0.33 | 0.31 | 85 | 1007.9 |
| 20260506110320 | 61 | 66 | 7.0 | 10.4 | 0.00 | 0.33 | 0.31 | 84 | 1007.9 |
| 20260506110219 | 61 | 38 | 7.0 | 10.4 | 0.00 | 0.33 | 0.31 | 84 | 1007.8 |
| 20260506110120 | 61 | 75 | 7.0 | 10.4 | 0.00 | 0.33 | 0.31 | 84 | 1007.9 |
| 20260506110041 | 61 | 39 | 7.0 | 10.4 | 0.00 | 0.33 | 0.31 | 84 | 1007.9 |
| 20260506105919 | 61 | 49 | 7.0 | 11.3 | 0.00 | 0.34 | 0.31 | 85 | 1007.9 |
| 20260506105821 | 61 | 66 | 7.0 | 11.3 | 0.00 | 0.34 | 0.31 | 86 | 1008.0 |
| 20260506105719 | 61 | 19 | 6.1 | 11.3 | 0.00 | 0.34 | 0.31 | 87 | 1008.0 |
| 20260506105620 | 61 | 59 | 6.1 | 11.3 | 0.00 | 0.34 | 0.31 | 87 | 1007.8 |
| 20260506105527 | 61 | 46 | 6.1 | 11.3 | 0.00 | 0.34 | 0.31 | 87 | 1007.9 |
| 20260506105421 | 61 | 65 | 6.1 | 11.3 | 0.00 | 0.34 | 0.31 | 86 | 1007.9 |
| 20260506105321 | 61 | 74 | 6.1 | 11.3 | 0.00 | 0.34 | 0.31 | 87 | 1007.9 |
| 20260506105219 | 61 | 62 | 5.2 | 11.3 | 0.00 | 0.34 | 0.31 | 85 | 1007.9 |
| 20260506105038 | 61 | 37 | 5.2 | 9.6 | 0.00 | 0.34 | 0.31 | 87 | 1008.0 |
| 20260506104919 | 61 | 12 | 5.2 | 9.6 | 0.00 | 0.34 | 0.31 | 89 | 1007.9 |
| 20260506104822 | 61 | 17 | 5.2 | 9.6 | 0.00 | 0.34 | 0.31 | 88 | 1008.0 |
| 20260506104721 | 60 | 62 | 5.2 | 9.6 | 0.00 | 0.34 | 0.31 | 87 | 1008.0 |
| 20260506104621 | 60 | 69 | 6.1 | 9.6 | 0.00 | 0.34 | 0.31 | 86 | 1008.1 |
| 20260506104527 | 60 | 57 | 6.1 | 9.6 | 0.00 | 0.34 | 0.31 | 87 | 1008.1 |
| 20260506104421 | 60 | 55 | 6.1 | 9.6 | 0.00 | 0.34 | 0.31 | 87 | 1008.0 |
| 20260506104321 | 60 | 66 | 6.1 | 10.4 | 0.00 | 0.34 | 0.31 | 87 | 1008.0 |
| 20260506104219 | 60 | 53 | 6.1 | 10.4 | 0.00 | 0.34 | 0.31 | 88 | 1008.1 |
| 20260506104119 | 60 | 32 | 6.1 | 10.4 | 0.00 | 0.34 | 0.31 | 88 | 1008.0 |
| 20260506104039 | 60 | 30 | 6.1 | 10.4 | 0.00 | 0.34 | 0.31 | 89 | 1008.1 |
| 20260506103919 | 60 | 30 | 6.1 | 10.4 | 0.00 | 0.34 | 0.31 | 89 | 1008.0 |
| 20260506103820 | 60 | 42 | 6.1 | 10.4 | 0.00 | 0.34 | 0.31 | 89 | 1008.0 |
| 20260506103719 | 59 | 44 | 6.1 | 10.4 | 0.00 | 0.34 | 0.31 | 88 | 1008.1 |
| 20260506103620 | 59 | 57 | 6.1 | 10.4 | 0.00 | 0.34 | 0.31 | 89 | 1008.0 |
| 20260506103420 | 59 | 51 | 5.2 | 9.6 | 0.00 | 0.34 | 0.31 | 89 | 1008.0 |
| 20260506103320 | 59 | 51 | 6.1 | 8.7 | 0.00 | 0.34 | 0.31 | 89 | 1008.0 |
| 20260506103219 | 59 | 46 | 6.1 | 11.3 | 0.00 | 0.34 | 0.31 | 89 | 1008.1 |
| 20260506103120 | 59 | 59 | 6.1 | 11.3 | 0.00 | 0.34 | 0.31 | 90 | 1008.1 |
| 20260506103041 | 59 | 48 | 6.1 | 11.3 | 0.00 | 0.34 | 0.31 | 89 | 1008.1 |
| 20260506102919 | 59 | 47 | 7.0 | 11.3 | 0.00 | 0.34 | 0.31 | 89 | 1008.1 |
| 20260506102821 | 59 | 39 | 7.0 | 11.3 | 0.00 | 0.34 | 0.31 | 90 | 1008.0 |
| 20260506102719 | 59 | 59 | 7.0 | 11.3 | 0.00 | 0.34 | 0.31 | 89 | 1008.1 |
| 20260506102527 | 59 | 65 | 7.0 | 11.3 | 0.00 | 0.34 | 0.31 | 89 | 1008.1 |
| 20260506102321 | 59 | 63 | 6.1 | 11.3 | 0.00 | 0.34 | 0.31 | 89 | 1008.1 |
| 20260506102219 | 59 | 59 | 6.1 | 11.3 | 0.00 | 0.34 | 0.31 | 90 | 1008.1 |
| 20260506102120 | 59 | 55 | 6.1 | 11.3 | 0.00 | 0.34 | 0.31 | 89 | 1008.1 |
| 20260506102043 | 59 | 58 | 5.2 | 11.3 | 0.00 | 0.34 | 0.31 | 89 | 1008.0 |
| 20260506101919 | 59 | 42 | 5.2 | 11.3 | 0.00 | 0.34 | 0.31 | 89 | 1008.2 |
| 20260506101719 | 59 | 37 | 4.3 | 9.6 | 0.00 | 0.34 | 0.31 | 89 | 1008.2 |
| 20260506101621 | 59 | 71 | 4.3 | 9.6 | 0.00 | 0.34 | 0.31 | 89 | 1008.1 |
| 20260506101527 | 59 | 55 | 4.3 | 9.6 | 0.00 | 0.34 | 0.31 | 90 | 1008.3 |
| 20260506101421 | 59 | 32 | 5.2 | 9.6 | 0.00 | 0.34 | 0.31 | 89 | 1008.2 |
| 20260506101320 | 59 | 38 | 5.2 | 9.6 | 0.00 | 0.34 | 0.31 | 89 | 1008.3 |
| 20260506101219 | 59 | 78 | 5.2 | 9.6 | 0.00 | 0.34 | 0.31 | 89 | 1008.3 |
| 20260506101119 | 59 | 55 | 4.3 | 9.6 | 0.00 | 0.34 | 0.31 | 89 | 1008.2 |
| 20260506101038 | 59 | 69 | 5.2 | 9.6 | 0.00 | 0.34 | 0.31 | 89 | 1008.3 |
| 20260506100919 | 59 | 48 | 5.2 | 9.6 | 0.00 | 0.34 | 0.31 | 90 | 1008.2 |
| 20260506100527 | 59 | 58 | 5.2 | 9.6 | 0.00 | 0.34 | 0.31 | 89 | 1008.1 |
| 20260506100420 | 59 | 59 | 5.2 | 8.7 | 0.00 | 0.34 | 0.31 | 89 | 1008.2 |
| 20260506100320 | 59 | 26 | 4.3 | 8.7 | 0.00 | 0.34 | 0.31 | 90 | 1008.1 |
| 20260506100219 | 59 | 38 | 4.3 | 8.7 | 0.00 | 0.34 | 0.31 | 91 | 1008.3 |
| 20260506100121 | 59 | 360 | 4.3 | 8.7 | 0.00 | 0.34 | 0.31 | 90 | 1008.1 |
| 20260506100041 | 59 | 32 | 4.3 | 8.7 | 0.00 | 0.34 | 0.31 | 91 | 1008.1 |
| 20260506095919 | 59 | 17 | 4.3 | 8.7 | 0.00 | 0.34 | 0.31 | 91 | 1008.1 |
| 20260506095821 | 59 | 63 | 4.3 | 8.7 | 0.00 | 0.34 | 0.31 | 90 | 1008.1 |
| 20260506095719 | 59 | 65 | 4.3 | 8.7 | 0.00 | 0.34 | 0.31 | 90 | 1008.1 |
| 20260506095620 | 59 | 52 | 4.3 | 8.7 | 0.00 | 0.34 | 0.31 | 90 | 1008.1 |
| 20260506095420 | 59 | 46 | 3.5 | 7.8 | 0.00 | 0.34 | 0.31 | 90 | 1008.1 |
| 20260506095320 | 59 | 37 | 3.5 | 7.8 | 0.00 | 0.34 | 0.31 | 90 | 1008.2 |
| 20260506095219 | 59 | 24 | 3.5 | 7.8 | 0.00 | 0.34 | 0.31 | 90 | 1008.1 |
| 20260506095119 | 59 | 20 | 3.5 | 7.8 | 0.00 | 0.34 | 0.31 | 90 | 1008.2 |
| 20260506095038 | 59 | 26 | 3.5 | 7.8 | 0.00 | 0.34 | 0.31 | 90 | 1008.2 |
| 20260506094919 | 59 | 49 | 3.5 | 7.8 | 0.00 | 0.34 | 0.31 | 90 | 1008.2 |
| 20260506094821 | 58 | 5 | 4.3 | 7.8 | 0.00 | 0.34 | 0.31 | 90 | 1008.2 |
| 20260506094719 | 58 | 5 | 4.3 | 7.8 | 0.00 | 0.34 | 0.31 | 90 | 1008.1 |
| 20260506094620 | 58 | 5 | 4.3 | 7.8 | 0.00 | 0.34 | 0.31 | 89 | 1008.2 |
| 20260506094527 | 58 | 35 | 4.3 | 7.8 | 0.00 | 0.34 | 0.31 | 89 | 1008.2 |
| 20260506094420 | 58 | 62 | 4.3 | 7.8 | 0.00 | 0.34 | 0.31 | 89 | 1008.3 |
| 20260506094320 | 58 | 36 | 4.3 | 7.8 | 0.00 | 0.34 | 0.31 | 90 | 1008.2 |
| 20260506094219 | 58 | 21 | 4.3 | 7.8 | 0.00 | 0.34 | 0.31 | 90 | 1008.3 |
| 20260506094038 | 58 | 23 | 4.3 | 7.8 | 0.00 | 0.34 | 0.31 | 90 | 1008.1 |
| 20260506093919 | 58 | 34 | 4.3 | 7.8 | 0.00 | 0.34 | 0.31 | 90 | 1008.2 |
| 20260506093821 | 58 | 61 | 4.3 | 7.8 | 0.00 | 0.34 | 0.31 | 90 | 1008.1 |
| 20260506093620 | 58 | 62 | 5.2 | 8.7 | 0.00 | 0.34 | 0.31 | 90 | 1008.2 |
| 20260506093527 | 58 | 55 | 5.2 | 8.7 | 0.00 | 0.34 | 0.31 | 90 | 1008.2 |
| 20260506093420 | 58 | 42 | 5.2 | 8.7 | 0.00 | 0.34 | 0.31 | 90 | 1008.3 |
| 20260506093320 | 58 | 50 | 5.2 | 8.7 | 0.00 | 0.34 | 0.31 | 90 | 1008.2 |
| 20260506093219 | 58 | 72 | 5.2 | 8.7 | 0.00 | 0.34 | 0.31 | 89 | 1008.1 |
| 20260506093119 | 58 | 49 | 5.2 | 8.7 | 0.00 | 0.34 | 0.31 | 89 | 1008.2 |
| 20260506093038 | 58 | 49 | 5.2 | 8.7 | 0.00 | 0.34 | 0.31 | 89 | 1008.3 |
| 20260506092919 | 58 | 29 | 5.2 | 8.7 | 0.00 | 0.34 | 0.31 | 89 | 1008.3 |
| 20260506092820 | 58 | 54 | 5.2 | 8.7 | 0.00 | 0.34 | 0.31 | 88 | 1008.3 |
| 20260506092719 | 58 | 53 | 5.2 | 8.7 | 0.00 | 0.34 | 0.31 | 88 | 1008.2 |
| 20260506092620 | 58 | 55 | 5.2 | 8.7 | 0.00 | 0.34 | 0.31 | 88 | 1008.2 |
| 20260506092321 | 59 | 65 | 4.3 | 8.7 | 0.00 | 0.34 | 0.31 | 89 | 1008.2 |
| 20260506092119 | 59 | 67 | 3.5 | 8.7 | 0.00 | 0.34 | 0.31 | 88 | 1008.0 |
| 20260506092041 | 59 | 72 | 3.5 | 7.8 | 0.00 | 0.34 | 0.31 | 89 | 1008.1 |
| 20260506091919 | 59 | 79 | 3.5 | 7.0 | 0.00 | 0.34 | 0.31 | 89 | 1008.2 |
| 20260506091719 | 59 | 9 | 2.6 | 7.0 | 0.00 | 0.34 | 0.31 | 90 | 1008.2 |
| 20260506091620 | 59 | 51 | 2.6 | 7.0 | 0.00 | 0.34 | 0.31 | 89 | 1008.2 |
| 20260506091527 | 59 | 24 | 2.6 | 7.0 | 0.00 | 0.34 | 0.31 | 89 | 1008.1 |
| 20260506091420 | 58 | 18 | 3.5 | 7.0 | 0.00 | 0.34 | 0.31 | 89 | 1008.1 |
| 20260506091320 | 58 | 62 | 3.5 | 7.0 | 0.00 | 0.34 | 0.31 | 87 | 1008.2 |
| 20260506091219 | 58 | 69 | 3.5 | 7.0 | 0.00 | 0.34 | 0.31 | 88 | 1008.2 |
| 20260506091119 | 58 | 73 | 2.6 | 7.0 | 0.00 | 0.34 | 0.31 | 88 | 1008.3 |
| 20260506091038 | 58 | 80 | 2.6 | 7.0 | 0.00 | 0.34 | 0.31 | 88 | 1008.3 |
| 20260506090919 | 58 | 17 | 3.5 | 7.0 | 0.00 | 0.34 | 0.31 | 88 | 1008.3 |
| 20260506090820 | 58 | 17 | 3.5 | 7.0 | 0.00 | 0.34 | 0.31 | 88 | 1008.2 |
| 20260506090620 | 58 | 17 | 3.5 | 7.0 | 0.00 | 0.34 | 0.31 | 88 | 1008.2 |
| 20260506090527 | 58 | 25 | 3.5 | 7.0 | 0.00 | 0.34 | 0.31 | 87 | 1008.3 |
| 20260506090421 | 58 | 5 | 2.6 | 7.0 | 0.00 | 0.34 | 0.31 | 89 | 1008.2 |
| 20260506090321 | 59 | 9 | 2.6 | 6.1 | 0.00 | 0.34 | 0.31 | 90 | 1008.3 |
| 20260506090219 | 58 | 15 | 2.6 | 6.1 | 0.00 | 0.34 | 0.31 | 89 | 1008.3 |
| 20260506090008 | 58 | 344 | 3.5 | 6.1 | 0.00 | 0.34 | 0.31 | 89 | 1008.4 |
| 20260506085902 | 58 | 17 | 4.3 | 7.8 | 0.00 | 0.34 | 0.31 | 90 | 1008.2 |
| 20260506085802 | 57 | 20 | 4.3 | 7.8 | 0.00 | 0.34 | 0.31 | 90 | 1008.2 |
| 20260506085705 | 57 | 18 | 4.3 | 7.8 | 0.00 | 0.34 | 0.31 | 91 | 1008.3 |
| 20260506085603 | 57 | 29 | 4.3 | 7.8 | 0.01 | 0.34 | 0.31 | 90 | 1008.2 |
| 20260506085503 | 57 | 5 | 4.3 | 7.8 | 0.01 | 0.34 | 0.31 | 90 | 1008.2 |
| 20260506085402 | 57 | 40 | 4.3 | 7.8 | 0.01 | 0.34 | 0.31 | 89 | 1008.2 |
| 20260506085306 | 56 | 42 | 4.3 | 7.8 | 0.01 | 0.34 | 0.31 | 89 | 1008.3 |
| 20260506085102 | 56 | 58 | 4.3 | 7.8 | 0.01 | 0.34 | 0.31 | 89 | 1008.2 |
| 20260506085003 | 57 | 65 | 4.3 | 7.8 | 0.01 | 0.34 | 0.31 | 89 | 1008.3 |
| 20260506084905 | 57 | 59 | 4.3 | 7.8 | 0.01 | 0.34 | 0.31 | 89 | 1008.3 |
| 20260506084802 | 57 | 70 | 4.3 | 7.8 | 0.01 | 0.34 | 0.31 | 89 | 1008.2 |
| 20260506084702 | 57 | 13 | 4.3 | 7.8 | 0.01 | 0.34 | 0.31 | 88 | 1008.3 |
| 20260506084505 | 57 | 5 | 4.3 | 7.8 | 0.02 | 0.34 | 0.31 | 89 | 1008.3 |
| 20260506084402 | 57 | 27 | 4.3 | 7.8 | 0.02 | 0.34 | 0.31 | 89 | 1008.2 |
| 20260506084303 | 57 | 29 | 4.3 | 7.8 | 0.02 | 0.34 | 0.31 | 89 | 1008.3 |
| 20260506084204 | 57 | 15 | 4.3 | 7.8 | 0.03 | 0.34 | 0.31 | 89 | 1008.3 |
| 20260506084102 | 57 | 32 | 4.3 | 7.8 | 0.03 | 0.34 | 0.31 | 89 | 1008.1 |
| 20260506084003 | 57 | 19 | 4.3 | 7.8 | 0.05 | 0.34 | 0.31 | 89 | 1008.2 |
| 20260506083902 | 57 | 355 | 4.3 | 7.8 | 0.05 | 0.34 | 0.31 | 90 | 1008.1 |
| 20260506083804 | 56 | 344 | 5.2 | 7.8 | 0.05 | 0.34 | 0.31 | 89 | 1008.1 |
| 20260506083702 | 56 | 355 | 4.3 | 7.8 | 0.06 | 0.34 | 0.31 | 90 | 1008.1 |
| 20260506083404 | 56 | 26 | 5.2 | 8.7 | 0.06 | 0.34 | 0.31 | 91 | 1008.1 |
| 20260506083302 | 56 | 17 | 5.2 | 8.7 | 0.06 | 0.34 | 0.31 | 91 | 1008.1 |
| 20260506083202 | 56 | 25 | 5.2 | 8.7 | 0.06 | 0.34 | 0.31 | 90 | 1008.0 |
| 20260506083104 | 56 | 350 | 5.2 | 8.7 | 0.06 | 0.34 | 0.31 | 90 | 1008.1 |
| 20260506083005 | 56 | 46 | 5.2 | 8.7 | 0.06 | 0.34 | 0.31 | 90 | 1008.2 |
| 20260506082902 | 56 | 47 | 4.3 | 8.7 | 0.07 | 0.34 | 0.31 | 90 | 1008.1 |
| 20260506082803 | 56 | 62 | 4.3 | 8.7 | 0.07 | 0.34 | 0.31 | 91 | 1008.1 |
| 20260506082705 | 56 | 40 | 4.3 | 7.8 | 0.08 | 0.34 | 0.31 | 91 | 1008.2 |
| 20260506082602 | 56 | 51 | 3.5 | 7.8 | 0.08 | 0.34 | 0.31 | 91 | 1008.0 |
| 20260506082421 | 56 | 51 | 3.5 | 7.0 | 0.08 | 0.34 | 0.31 | 91 | 1007.9 |
| 20260506082321 | 56 | 55 | 2.6 | 6.1 | 0.08 | 0.34 | 0.31 | 92 | 1008.0 |
| 20260506082219 | 56 | 43 | 2.6 | 5.2 | 0.08 | 0.34 | 0.31 | 91 | 1008.0 |
| 20260506082038 | 56 | 28 | 1.7 | 4.3 | 0.09 | 0.34 | 0.31 | 92 | 1008.1 |
| 20260506081919 | 56 | 51 | 1.7 | 4.3 | 0.09 | 0.34 | 0.31 | 92 | 1008.0 |
| 20260506081821 | 56 | 50 | 1.7 | 4.3 | 0.09 | 0.34 | 0.31 | 92 | 1008.0 |
| 20260506081720 | 55 | 50 | 0.9 | 4.3 | 0.09 | 0.34 | 0.31 | 92 | 1008.1 |
| 20260506081620 | 55 | 41 | 0.9 | 4.3 | 0.09 | 0.34 | 0.31 | 92 | 1008.2 |
| 20260506081529 | 55 | 117 | 0.9 | 3.5 | 0.09 | 0.34 | 0.31 | 92 | 1008.2 |
| 20260506081320 | 55 | 210 | 0.9 | 3.5 | 0.10 | 0.34 | 0.31 | 92 | 1008.2 |
| 20260506081219 | 55 | 202 | 0.9 | 2.6 | 0.10 | 0.34 | 0.31 | 92 | 1008.2 |
| 20260506081120 | 55 | 202 | 0.9 | 2.6 | 0.10 | 0.34 | 0.31 | 92 | 1008.1 |
| 20260506081044 | 55 | 202 | 0.9 | 2.6 | 0.10 | 0.34 | 0.31 | 92 | 1008.1 |
| 20260506080719 | 55 | 183 | 0.9 | 2.6 | 0.10 | 0.34 | 0.31 | 92 | 1008.1 |
| 20260506080620 | 55 | 183 | 0.9 | 4.3 | 0.10 | 0.34 | 0.31 | 91 | 1008.2 |
| 20260506080320 | 54 | 188 | 0.9 | 4.3 | 0.10 | 0.34 | 0.31 | 91 | 1008.1 |
| 20260506080220 | 54 | 189 | 0.9 | 4.3 | 0.10 | 0.34 | 0.31 | 91 | 1008.0 |
| 20260506080120 | 54 | 132 | 0.9 | 4.3 | 0.10 | 0.34 | 0.31 | 91 | 1008.0 |
| 20260506073527 | 54 | 175 | 0.9 | 2.6 | 0.06 | 0.31 | 0.26 | 93 | 1008.7 |
| 20260506073418 | 54 | 175 | 0.9 | 2.6 | 0.05 | 0.30 | 0.25 | 93 | 1008.6 |
| 20260506073218 | 54 | 175 | 0.9 | 2.6 | 0.05 | 0.30 | 0.25 | 93 | 1008.5 |
| 20260506073119 | 54 | 175 | 0.9 | 3.5 | 0.05 | 0.30 | 0.25 | 93 | 1008.4 |
| 20260506073037 | 54 | 175 | 1.7 | 4.3 | 0.04 | 0.29 | 0.24 | 93 | 1008.5 |
| 20260506072918 | 54 | 175 | 1.7 | 5.2 | 0.04 | 0.29 | 0.24 | 93 | 1008.4 |
| 20260506072721 | 54 | 74 | 2.6 | 7.0 | 0.03 | 0.28 | 0.24 | 92 | 1008.3 |
| 20260506072618 | 54 | 74 | 2.6 | 7.0 | 0.03 | 0.28 | 0.24 | 93 | 1008.3 |
| 20260506072527 | 54 | 57 | 3.5 | 7.0 | 0.03 | 0.28 | 0.24 | 92 | 1008.3 |
| 20260506072418 | 54 | 58 | 3.5 | 7.0 | 0.03 | 0.28 | 0.24 | 92 | 1008.4 |
| 20260506072319 | 54 | 63 | 3.5 | 7.0 | 0.03 | 0.28 | 0.24 | 92 | 1008.4 |
| 20260506072218 | 54 | 67 | 3.5 | 7.0 | 0.03 | 0.28 | 0.24 | 92 | 1008.3 |
| 20260506072120 | 54 | 10 | 4.3 | 7.0 | 0.02 | 0.28 | 0.23 | 92 | 1008.1 |
| 20260506072039 | 54 | 11 | 4.3 | 7.0 | 0.02 | 0.28 | 0.23 | 92 | 1008.2 |
| 20260506071919 | 54 | 60 | 4.3 | 8.7 | 0.02 | 0.27 | 0.22 | 91 | 1008.2 |
| 20260506071818 | 54 | 59 | 5.2 | 8.7 | 0.02 | 0.27 | 0.22 | 91 | 1008.2 |
| 20260506071720 | 54 | 56 | 5.2 | 12.2 | 0.02 | 0.27 | 0.22 | 91 | 1008.2 |
| 20260506071618 | 54 | 74 | 5.2 | 12.2 | 0.02 | 0.27 | 0.22 | 91 | 1008.3 |
| 20260506071529 | 54 | 93 | 5.2 | 12.2 | 0.01 | 0.26 | 0.21 | 91 | 1008.2 |
| 20260506071418 | 54 | 105 | 6.1 | 12.2 | 0.01 | 0.26 | 0.21 | 91 | 1008.2 |
| 20260506071319 | 54 | 118 | 6.1 | 12.2 | 0.01 | 0.26 | 0.21 | 91 | 1008.2 |
| 20260506071218 | 55 | 119 | 6.1 | 12.2 | 0.01 | 0.26 | 0.21 | 90 | 1008.2 |
| 20260506071119 | 55 | 66 | 6.1 | 12.2 | 0.01 | 0.26 | 0.21 | 90 | 1008.0 |
| 20260506071036 | 54 | 19 | 6.1 | 12.2 | 0.01 | 0.26 | 0.21 | 90 | 1008.0 |
| 20260506070918 | 55 | 73 | 6.1 | 12.2 | 0.01 | 0.26 | 0.21 | 90 | 1007.9 |
| 20260506070818 | 55 | 43 | 6.1 | 11.3 | 0.01 | 0.26 | 0.21 | 90 | 1007.9 |
| 20260506070618 | 55 | 46 | 6.1 | 11.3 | 0.01 | 0.26 | 0.21 | 90 | 1007.9 |
| 20260506070418 | 55 | 50 | 6.1 | 11.3 | 0.01 | 0.26 | 0.21 | 90 | 1007.9 |
| 20260506070321 | 55 | 355 | 6.1 | 11.3 | 0.01 | 0.26 | 0.21 | 90 | 1007.9 |
| 20260506070218 | 55 | 47 | 6.1 | 11.3 | 0.01 | 0.26 | 0.21 | 90 | 1007.9 |
| 20260506070126 | 55 | 342 | 6.1 | 12.2 | 0.01 | 0.26 | 0.21 | 90 | 1007.9 |
| 20260506062419 | 55 | 59 | 7.8 | 13.0 | 0.00 | 0.54 | 0.20 | 89 | 1008.2 |
| 20260506062318 | 55 | 51 | 7.8 | 13.0 | 0.00 | 0.54 | 0.20 | 89 | 1008.2 |
| 20260506062119 | 55 | 64 | 7.8 | 13.0 | 0.00 | 0.54 | 0.20 | 89 | 1008.2 |
| 20260506062038 | 55 | 29 | 8.7 | 13.0 | 0.00 | 0.54 | 0.20 | 89 | 1008.2 |
| 20260506061918 | 55 | 49 | 8.7 | 13.0 | 0.00 | 0.54 | 0.20 | 89 | 1008.1 |
| 20260506061821 | 55 | 43 | 8.7 | 13.0 | 0.00 | 0.54 | 0.20 | 88 | 1008.1 |
| 20260506061619 | 55 | 60 | 7.8 | 13.0 | 0.00 | 0.54 | 0.20 | 88 | 1008.2 |
| 20260506061526 | 55 | 51 | 7.0 | 13.0 | 0.00 | 0.54 | 0.20 | 88 | 1008.2 |
| 20260506061419 | 55 | 35 | 7.0 | 13.0 | 0.00 | 0.54 | 0.20 | 89 | 1008.1 |
| 20260506061320 | 55 | 40 | 7.0 | 13.0 | 0.00 | 0.54 | 0.20 | 89 | 1008.1 |
| 20260506061220 | 55 | 34 | 6.1 | 13.0 | 0.00 | 0.54 | 0.20 | 89 | 1008.0 |
| 20260506061119 | 55 | 51 | 6.1 | 13.0 | 0.00 | 0.54 | 0.20 | 89 | 1008.1 |
| 20260506061035 | 55 | 50 | 6.1 | 13.0 | 0.00 | 0.54 | 0.20 | 89 | 1008.1 |
| 20260506060918 | 55 | 43 | 6.1 | 13.0 | 0.00 | 0.54 | 0.20 | 89 | 1008.0 |
| 20260506060718 | 55 | 46 | 6.1 | 12.2 | 0.00 | 0.54 | 0.20 | 90 | 1007.9 |
| 20260506060619 | 55 | 38 | 6.1 | 12.2 | 0.00 | 0.54 | 0.20 | 90 | 1008.1 |
| 20260506060526 | 55 | 32 | 6.1 | 12.2 | 0.00 | 0.54 | 0.20 | 90 | 1008.1 |
| 20260506060419 | 55 | 61 | 6.1 | 12.2 | 0.00 | 0.54 | 0.20 | 90 | 1008.1 |
| 20260506060119 | 55 | 63 | 7.0 | 12.2 | 0.00 | 0.54 | 0.20 | 89 | 1008.2 |
| 20260506051403 | 52 | 129 | 2.6 | 5.2 | 0.01 | 0.66 | 0.20 | 94 | 1009.4 |
| 20260506051302 | 52 | 85 | 2.6 | 7.0 | 0.01 | 0.66 | 0.20 | 94 | 1009.3 |
| 20260506051201 | 52 | 85 | 2.6 | 7.0 | 0.01 | 0.66 | 0.20 | 94 | 1009.3 |
| 20260506051101 | 52 | 85 | 3.5 | 7.0 | 0.01 | 0.66 | 0.20 | 94 | 1009.3 |
| 20260506050901 | 52 | 66 | 3.5 | 7.8 | 0.01 | 0.66 | 0.20 | 94 | 1009.2 |
| 20260506050801 | 52 | 80 | 3.5 | 7.8 | 0.01 | 0.66 | 0.20 | 95 | 1009.2 |
| 20260506050701 | 52 | 173 | 3.5 | 7.8 | 0.01 | 0.66 | 0.20 | 95 | 1009.2 |
| 20260506050501 | 52 | 159 | 3.5 | 7.8 | 0.01 | 0.66 | 0.20 | 95 | 1009.2 |
| 20260506050303 | 52 | 5 | 2.6 | 7.8 | 0.01 | 0.66 | 0.20 | 95 | 1009.2 |
| 20260506050202 | 51 | 60 | 2.6 | 7.8 | 0.01 | 0.66 | 0.20 | 95 | 1009.1 |
| 20260506050105 | 51 | 28 | 2.6 | 7.8 | 0.01 | 0.66 | 0.20 | 96 | 1009.1 |
| 20260506045101 | 51 | 44 | 2.6 | 5.2 | 0.01 | 0.76 | 0.20 | 96 | 1009.3 |
| 20260506045001 | 51 | 46 | 3.5 | 5.2 | 0.01 | 0.76 | 0.20 | 96 | 1009.4 |
| 20260506044901 | 51 | 62 | 3.5 | 5.2 | 0.01 | 0.76 | 0.20 | 97 | 1009.5 |
| 20260506044701 | 51 | 82 | 3.5 | 9.6 | 0.00 | 0.75 | 0.20 | 97 | 1009.5 |
| 20260506044601 | 51 | 71 | 3.5 | 9.6 | 0.01 | 0.75 | 0.20 | 97 | 1009.5 |
| 20260506044501 | 51 | 76 | 3.5 | 9.6 | 0.01 | 0.75 | 0.20 | 97 | 1009.6 |
| 20260506044404 | 51 | 81 | 3.5 | 9.6 | 0.01 | 0.75 | 0.20 | 97 | 1009.6 |
| 20260506044301 | 51 | 75 | 3.5 | 9.6 | 0.01 | 0.75 | 0.20 | 97 | 1009.6 |
| 20260506044201 | 51 | 62 | 3.5 | 9.6 | 0.01 | 0.75 | 0.20 | 97 | 1009.6 |
| 20260506044002 | 50 | 126 | 3.5 | 9.6 | 0.01 | 0.75 | 0.20 | 97 | 1009.6 |
| 20260506043901 | 50 | 102 | 2.6 | 9.6 | 0.01 | 0.75 | 0.20 | 97 | 1009.6 |
| 20260506043703 | 50 | 75 | 2.6 | 7.0 | 0.01 | 0.75 | 0.20 | 97 | 1009.5 |
| 20260506043501 | 50 | 74 | 2.6 | 7.0 | 0.01 | 0.75 | 0.20 | 97 | 1009.5 |
| 20260506043302 | 50 | 67 | 1.7 | 7.0 | 0.01 | 0.75 | 0.20 | 97 | 1009.5 |
| 20260506043201 | 50 | 67 | 0.9 | 6.1 | 0.01 | 0.75 | 0.20 | 97 | 1009.5 |
| 20260506043101 | 50 | 78 | 0.9 | 6.1 | 0.02 | 0.75 | 0.20 | 97 | 1009.6 |
| 20260506042901 | 50 | 76 | 0.9 | 4.3 | 0.02 | 0.75 | 0.20 | 97 | 1009.7 |
| 20260506042801 | 50 | 200 | 0.9 | 2.6 | 0.02 | 0.75 | 0.20 | 97 | 1009.7 |
| 20260506042501 | 50 | 137 | 0.0 | 2.6 | 0.02 | 0.75 | 0.20 | 97 | 1009.8 |
| 20260506042401 | 50 | 186 | 0.9 | 2.6 | 0.02 | 0.75 | 0.20 | 97 | 1009.8 |
| 20260506042305 | 50 | 186 | 0.9 | 2.6 | 0.02 | 0.75 | 0.20 | 97 | 1009.8 |
| 20260506042204 | 50 | 186 | 0.9 | 2.6 | 0.02 | 0.75 | 0.20 | 97 | 1009.8 |
| 20260506042101 | 50 | 182 | 0.9 | 1.7 | 0.02 | 0.75 | 0.20 | 97 | 1009.8 |
| 20260506042002 | 50 | 182 | 0.9 | 1.7 | 0.02 | 0.75 | 0.20 | 97 | 1009.8 |
| 20260506041903 | 50 | 182 | 0.9 | 1.7 | 0.02 | 0.75 | 0.20 | 97 | 1009.8 |
| 20260506041801 | 50 | 182 | 0.9 | 1.7 | 0.02 | 0.75 | 0.20 | 97 | 1009.8 |
| 20260506041603 | 50 | 182 | 0.9 | 1.7 | 0.03 | 0.75 | 0.20 | 97 | 1009.6 |
| 20260506041301 | 50 | 182 | 0.0 | 1.7 | 0.03 | 0.75 | 0.20 | 97 | 1009.8 |
| 20260506040901 | 50 | 182 | 0.9 | 1.7 | 0.04 | 0.75 | 0.20 | 97 | 1009.8 |
| 20260506040803 | 50 | 182 | 0.9 | 1.7 | 0.04 | 0.75 | 0.20 | 97 | 1009.9 |
| 20260506040701 | 50 | 182 | 0.9 | 1.7 | 0.05 | 0.75 | 0.20 | 97 | 1010.0 |
| 20260506040601 | 50 | 182 | 0.9 | 1.7 | 0.05 | 0.75 | 0.20 | 97 | 1010.0 |
| 20260506040501 | 50 | 182 | 1.7 | 1.7 | 0.05 | 0.75 | 0.20 | 97 | 1010.0 |
| 20260506040404 | 50 | 182 | 1.7 | 2.6 | 0.05 | 0.75 | 0.20 | 97 | 1010.0 |
| 20260506040301 | 50 | 182 | 1.7 | 2.6 | 0.06 | 0.75 | 0.20 | 97 | 1010.0 |
| 20260506040201 | 50 | 182 | 1.7 | 2.6 | 0.06 | 0.75 | 0.20 | 97 | 1010.1 |
| 20260506040009 | 50 | 182 | 1.7 | 2.6 | 0.06 | 0.75 | 0.20 | 97 | 1010.1 |
| 20260506035901 | 50 | 182 | 1.7 | 2.6 | 0.06 | 0.80 | 0.20 | 97 | 1010.1 |
| 20260506035704 | 50 | 180 | 1.7 | 2.6 | 0.06 | 0.80 | 0.20 | 97 | 1010.0 |
| 20260506035601 | 50 | 180 | 1.7 | 3.5 | 0.06 | 0.80 | 0.20 | 97 | 1010.0 |
| 20260506035501 | 50 | 179 | 1.7 | 3.5 | 0.06 | 0.80 | 0.20 | 97 | 1010.1 |
| 20260506035402 | 50 | 167 | 1.7 | 3.5 | 0.06 | 0.80 | 0.20 | 97 | 1010.1 |
| 20260506035201 | 50 | 102 | 1.7 | 3.5 | 0.06 | 0.80 | 0.20 | 97 | 1010.0 |
| 20260506035101 | 50 | 49 | 1.7 | 3.5 | 0.06 | 0.80 | 0.20 | 97 | 1009.9 |
| 20260506035002 | 50 | 52 | 1.7 | 3.5 | 0.06 | 0.80 | 0.20 | 97 | 1009.9 |
| 20260506034903 | 50 | 53 | 1.7 | 3.5 | 0.06 | 0.80 | 0.20 | 97 | 1009.8 |
| 20260506034801 | 50 | 53 | 1.7 | 3.5 | 0.06 | 0.80 | 0.20 | 97 | 1009.8 |
| 20260506034703 | 50 | 51 | 1.7 | 3.5 | 0.06 | 0.80 | 0.20 | 97 | 1009.7 |
| 20260506034601 | 50 | 17 | 1.7 | 2.6 | 0.06 | 0.79 | 0.19 | 97 | 1009.7 |
| 20260506034501 | 50 | 344 | 1.7 | 3.5 | 0.06 | 0.79 | 0.19 | 97 | 1010.0 |
| 20260506034401 | 50 | 198 | 1.7 | 3.5 | 0.06 | 0.79 | 0.19 | 97 | 1010.0 |
| 20260506034303 | 50 | 198 | 1.7 | 3.5 | 0.06 | 0.79 | 0.19 | 97 | 1010.1 |
| 20260506034202 | 50 | 198 | 2.6 | 3.5 | 0.06 | 0.79 | 0.19 | 97 | 1010.3 |
| 20260506034101 | 50 | 198 | 2.6 | 3.5 | 0.06 | 0.79 | 0.19 | 97 | 1010.3 |
| 20260506034002 | 50 | 198 | 2.6 | 4.3 | 0.06 | 0.79 | 0.19 | 97 | 1010.3 |
| 20260506033801 | 50 | 198 | 2.6 | 4.3 | 0.06 | 0.79 | 0.19 | 97 | 1010.4 |
| 20260506033701 | 50 | 196 | 1.7 | 4.3 | 0.07 | 0.79 | 0.19 | 97 | 1010.3 |
| 20260506033502 | 50 | 190 | 1.7 | 4.3 | 0.07 | 0.79 | 0.19 | 97 | 1010.3 |
| 20260506033301 | 50 | 184 | 0.9 | 4.3 | 0.08 | 0.79 | 0.19 | 97 | 1010.3 |
| 20260506033101 | 49 | 180 | 0.0 | 4.3 | 0.08 | 0.78 | 0.18 | 97 | 1010.2 |
| 20260506033002 | 49 | 180 | 0.0 | 2.6 | 0.08 | 0.78 | 0.18 | 97 | 1010.2 |
| 20260506032903 | 49 | 134 | 0.0 | 0.9 | 0.09 | 0.78 | 0.18 | 97 | 1010.1 |
| 20260506032803 | 49 | 134 | 0.0 | 1.7 | 0.09 | 0.78 | 0.18 | 97 | 1010.1 |
| 20260506032701 | 49 | 134 | 0.0 | 1.7 | 0.09 | 0.78 | 0.18 | 97 | 1010.1 |
| 20260506032601 | 49 | 134 | 0.0 | 1.7 | 0.09 | 0.78 | 0.18 | 97 | 1010.2 |
| 20260506032503 | 49 | 134 | 0.0 | 1.7 | 0.09 | 0.78 | 0.18 | 97 | 1010.2 |
| 20260506032401 | 49 | 134 | 0.0 | 1.7 | 0.09 | 0.78 | 0.18 | 97 | 1010.0 |
| 20260506032301 | 49 | 134 | 0.0 | 1.7 | 0.09 | 0.77 | 0.17 | 97 | 1010.1 |
| 20260506032203 | 49 | 134 | 0.0 | 1.7 | 0.09 | 0.77 | 0.17 | 97 | 1010.0 |
| 20260506032103 | 49 | 134 | 0.0 | 1.7 | 0.09 | 0.77 | 0.17 | 97 | 1010.1 |
| 20260506032001 | 49 | 134 | 0.0 | 1.7 | 0.09 | 0.77 | 0.17 | 97 | 1010.0 |
| 20260506031901 | 49 | 132 | 0.0 | 1.7 | 0.10 | 0.77 | 0.17 | 97 | 1010.2 |
| 20260506031803 | 49 | 132 | 0.0 | 0.0 | 0.10 | 0.77 | 0.17 | 97 | 1010.2 |
| 20260506031701 | 49 | 132 | 0.0 | 0.0 | 0.10 | 0.76 | 0.17 | 97 | 1010.1 |
| 20260506031601 | 49 | 132 | 0.9 | 1.7 | 0.10 | 0.76 | 0.17 | 97 | 1010.2 |
| 20260506031501 | 49 | 132 | 0.9 | 2.6 | 0.11 | 0.76 | 0.17 | 97 | 1010.2 |
| 20260506031403 | 49 | 132 | 0.9 | 2.6 | 0.12 | 0.76 | 0.17 | 97 | 1010.2 |
| 20260506031005 | 49 | 132 | 0.9 | 2.6 | 0.12 | 0.76 | 0.16 | 97 | 1010.4 |
| 20260506030901 | 49 | 132 | 0.9 | 2.6 | 0.12 | 0.76 | 0.16 | 97 | 1010.3 |
| 20260506030801 | 49 | 132 | 0.9 | 2.6 | 0.13 | 0.76 | 0.16 | 97 | 1010.4 |
| 20260506030702 | 49 | 132 | 0.9 | 2.6 | 0.12 | 0.75 | 0.15 | 97 | 1010.4 |
| 20260506030603 | 49 | 132 | 0.9 | 2.6 | 0.12 | 0.75 | 0.15 | 97 | 1010.4 |
| 20260506030501 | 49 | 132 | 0.9 | 2.6 | 0.12 | 0.75 | 0.15 | 97 | 1010.3 |
| 20260506030403 | 49 | 76 | 0.9 | 2.6 | 0.13 | 0.75 | 0.15 | 97 | 1010.4 |
| 20260506030202 | 49 | 76 | 1.7 | 2.6 | 0.12 | 0.74 | 0.14 | 97 | 1010.3 |
| 20260506030007 | 49 | 76 | 0.9 | 2.6 | 0.13 | 0.74 | 0.14 | 97 | 1010.4 |
| 20260506025903 | 49 | 78 | 0.9 | 2.6 | 0.13 | 0.74 | 0.14 | 97 | 1010.5 |
| 20260506025802 | 49 | 190 | 0.9 | 2.6 | 0.13 | 0.74 | 0.14 | 97 | 1010.6 |
| 20260506025601 | 49 | 190 | 0.9 | 2.6 | 0.13 | 0.74 | 0.14 | 97 | 1010.7 |
| 20260506025403 | 49 | 190 | 0.9 | 2.6 | 0.13 | 0.74 | 0.14 | 97 | 1010.6 |
| 20260506025301 | 49 | 190 | 0.9 | 2.6 | 0.13 | 0.74 | 0.14 | 97 | 1010.6 |
| 20260506025203 | 49 | 190 | 0.9 | 2.6 | 0.13 | 0.74 | 0.14 | 97 | 1010.6 |
| 20260506025101 | 49 | 190 | 0.0 | 2.6 | 0.14 | 0.74 | 0.14 | 97 | 1010.7 |
| 20260506025001 | 49 | 192 | 0.0 | 2.6 | 0.14 | 0.74 | 0.14 | 97 | 1010.8 |
| 20260506024901 | 49 | 192 | 0.0 | 2.6 | 0.13 | 0.73 | 0.13 | 97 | 1010.7 |
| 20260506024803 | 49 | 193 | 0.0 | 2.6 | 0.13 | 0.73 | 0.13 | 97 | 1010.7 |
| 20260506024702 | 49 | 200 | 0.0 | 0.0 | 0.13 | 0.73 | 0.13 | 96 | 1010.6 |
| 20260506024601 | 49 | 200 | 0.0 | 0.0 | 0.13 | 0.73 | 0.13 | 96 | 1010.6 |
| 20260506024501 | 49 | 200 | 0.0 | 0.0 | 0.13 | 0.73 | 0.13 | 96 | 1010.6 |
| 20260506024403 | 49 | 200 | 0.0 | 0.0 | 0.13 | 0.73 | 0.13 | 96 | 1010.6 |
| 20260506024301 | 49 | 200 | 0.0 | 0.0 | 0.13 | 0.73 | 0.13 | 97 | 1010.7 |
| 20260506024201 | 49 | 200 | 0.0 | 0.0 | 0.13 | 0.72 | 0.13 | 97 | 1010.6 |
| 20260506024102 | 49 | 200 | 0.0 | 0.0 | 0.13 | 0.72 | 0.13 | 97 | 1010.6 |
| 20260506024004 | 49 | 200 | 0.0 | 0.0 | 0.13 | 0.72 | 0.13 | 97 | 1010.6 |
| 20260506023901 | 49 | 200 | 0.0 | 0.0 | 0.13 | 0.72 | 0.13 | 96 | 1010.5 |
| 20260506023703 | 49 | 200 | 0.0 | 0.0 | 0.12 | 0.72 | 0.12 | 97 | 1010.5 |
| 20260506023601 | 49 | 200 | 0.0 | 0.0 | 0.12 | 0.72 | 0.12 | 97 | 1010.6 |
| 20260506023501 | 49 | 200 | 0.0 | 0.0 | 0.12 | 0.72 | 0.12 | 97 | 1010.7 |
| 20260506023402 | 49 | 200 | 0.0 | 0.0 | 0.11 | 0.71 | 0.11 | 97 | 1010.7 |
| 20260506023304 | 49 | 200 | 0.0 | 0.0 | 0.11 | 0.71 | 0.11 | 96 | 1010.6 |
| 20260506022901 | 49 | 200 | 0.0 | 0.0 | 0.09 | 0.69 | 0.09 | 97 | 1010.8 |
| 20260506022801 | 49 | 200 | 0.0 | 0.0 | 0.09 | 0.69 | 0.09 | 97 | 1010.9 |
| 20260506022703 | 49 | 200 | 0.0 | 0.0 | 0.09 | 0.69 | 0.09 | 97 | 1010.8 |
| 20260506022601 | 49 | 200 | 0.0 | 0.0 | 0.09 | 0.69 | 0.09 | 96 | 1010.8 |
| 20260506022501 | 49 | 200 | 0.0 | 0.0 | 0.09 | 0.69 | 0.09 | 96 | 1010.9 |
| 20260506022402 | 49 | 200 | 0.0 | 0.0 | 0.09 | 0.69 | 0.09 | 96 | 1010.9 |
| 20260506022305 | 49 | 200 | 0.0 | 0.0 | 0.08 | 0.68 | 0.08 | 96 | 1011.0 |
| 20260506022201 | 49 | 200 | 0.0 | 0.0 | 0.08 | 0.68 | 0.08 | 96 | 1011.0 |
| 20260506022101 | 49 | 200 | 0.0 | 0.0 | 0.08 | 0.68 | 0.08 | 96 | 1011.0 |
| 20260506022004 | 49 | 200 | 0.0 | 0.0 | 0.08 | 0.68 | 0.08 | 96 | 1011.1 |
| 20260506021901 | 49 | 200 | 0.0 | 0.0 | 0.07 | 0.67 | 0.07 | 96 | 1011.0 |
| 20260506021703 | 49 | 200 | 0.0 | 0.0 | 0.06 | 0.66 | 0.06 | 97 | 1011.0 |
| 20260506021501 | 49 | 200 | 0.0 | 0.0 | 0.06 | 0.65 | 0.06 | 97 | 1011.0 |
| 20260506021303 | 49 | 200 | 0.0 | 0.9 | 0.05 | 0.65 | 0.05 | 97 | 1011.1 |
| 20260506021201 | 49 | 200 | 0.0 | 0.9 | 0.05 | 0.65 | 0.05 | 97 | 1011.1 |
| 20260506021101 | 49 | 200 | 0.0 | 0.9 | 0.04 | 0.64 | 0.04 | 97 | 1011.1 |
| 20260506021004 | 48 | 200 | 0.0 | 0.9 | 0.04 | 0.64 | 0.04 | 97 | 1011.1 |
| 20260506020903 | 48 | 200 | 0.0 | 0.9 | 0.04 | 0.64 | 0.04 | 97 | 1011.1 |
| 20260506020801 | 48 | 200 | 0.0 | 0.9 | 0.03 | 0.63 | 0.03 | 97 | 1011.1 |
| 20260506020603 | 48 | 200 | 0.0 | 0.9 | 0.03 | 0.63 | 0.03 | 97 | 1011.1 |
| 20260506020501 | 48 | 200 | 0.0 | 0.9 | 0.03 | 0.63 | 0.03 | 96 | 1011.1 |
| 20260506020401 | 48 | 200 | 0.0 | 0.9 | 0.02 | 0.62 | 0.02 | 97 | 1011.1 |
| 20260506020303 | 48 | 200 | 0.0 | 0.9 | 0.02 | 0.62 | 0.02 | 97 | 1011.2 |
| 20260506020203 | 48 | 200 | 0.0 | 0.9 | 0.02 | 0.62 | 0.02 | 97 | 1011.2 |
| 20260506020005 | 48 | 200 | 0.0 | 1.7 | 0.02 | 0.61 | 0.02 | 96 | 1011.2 |
| 20260506015903 | 48 | 200 | 0.0 | 1.7 | 0.02 | 0.61 | 0.02 | 96 | 1011.2 |
| 20260506015801 | 48 | 200 | 0.0 | 1.7 | 0.02 | 0.61 | 0.02 | 96 | 1011.2 |
| 20260506015701 | 48 | 200 | 0.0 | 1.7 | 0.02 | 0.61 | 0.02 | 96 | 1011.1 |
| 20260506015603 | 48 | 200 | 0.0 | 1.7 | 0.02 | 0.61 | 0.02 | 96 | 1011.1 |
| 20260506015502 | 48 | 200 | 0.0 | 1.7 | 0.01 | 0.61 | 0.01 | 96 | 1011.2 |
| 20260506015401 | 48 | 200 | 0.0 | 1.7 | 0.01 | 0.61 | 0.01 | 96 | 1011.2 |
| 20260506015204 | 48 | 200 | 0.0 | 1.7 | 0.01 | 0.61 | 0.01 | 96 | 1011.2 |
| 20260506015102 | 48 | 200 | 0.0 | 0.9 | 0.00 | 0.60 | 0.00 | 96 | 1011.2 |
| 20260506015002 | 48 | 200 | 0.0 | 0.9 | 0.00 | 0.60 | 0.00 | 96 | 1011.2 |
| 20260506014905 | 48 | 200 | 0.0 | 0.9 | 0.00 | 0.60 | 0.00 | 96 | 1011.3 |
| 20260506014802 | 48 | 200 | 0.9 | 0.9 | 0.00 | 0.60 | 0.00 | 96 | 1011.2 |
| 20260506014701 | 48 | 200 | 0.9 | 2.6 | 0.00 | 0.60 | 0.00 | 96 | 1011.2 |
| 20260506014504 | 48 | 200 | 0.9 | 2.6 | 0.00 | 0.60 | 0.00 | 96 | 1011.1 |
| 20260506014402 | 48 | 200 | 0.9 | 2.6 | 0.00 | 0.60 | 0.00 | 96 | 1011.1 |
| 20260506014302 | 48 | 200 | 0.9 | 2.6 | 0.00 | 0.60 | 0.00 | 96 | 1011.2 |
| 20260506014203 | 48 | 200 | 0.9 | 2.6 | 0.00 | 0.60 | 0.00 | 96 | 1011.1 |
| 20260506014102 | 48 | 200 | 0.9 | 2.6 | 0.00 | 0.60 | 0.00 | 96 | 1011.1 |
| 20260506013901 | 48 | 200 | 0.9 | 3.5 | 0.00 | 0.60 | 0.00 | 96 | 1011.1 |
| 20260506013804 | 48 | 190 | 0.9 | 3.5 | 0.00 | 0.60 | 0.00 | 96 | 1011.0 |
| 20260506013701 | 48 | 163 | 0.9 | 3.5 | 0.00 | 0.60 | 0.00 | 96 | 1011.0 |
| 20260506013602 | 48 | 113 | 0.9 | 3.5 | 0.00 | 0.60 | 0.00 | 97 | 1010.9 |
| 20260506013404 | 48 | 113 | 0.9 | 3.5 | 0.00 | 0.60 | 0.00 | 96 | 1010.9 |
| 20260506013301 | 48 | 113 | 0.9 | 3.5 | 0.00 | 0.60 | 0.00 | 96 | 1011.0 |
| 20260506013202 | 48 | 113 | 0.9 | 3.5 | 0.00 | 0.60 | 0.00 | 96 | 1011.0 |
| 20260506013103 | 48 | 121 | 0.0 | 2.6 | 0.00 | 0.60 | 0.00 | 96 | 1011.0 |
| 20260506013002 | 48 | 124 | 0.0 | 2.6 | 0.00 | 0.60 | 0.00 | 96 | 1011.0 |
| 20260506012902 | 48 | 175 | 0.0 | 0.9 | 0.00 | 0.60 | 0.00 | 96 | 1011.0 |
| 20260506012802 | 48 | 274 | 0.0 | 0.9 | 0.00 | 0.60 | 0.00 | 96 | 1011.1 |
| 20260506012602 | 48 | 274 | 0.0 | 0.9 | 0.00 | 0.60 | 0.00 | 96 | 1011.1 |
| 20260506012501 | 48 | 274 | 0.0 | 0.9 | 0.00 | 0.60 | 0.00 | 96 | 1011.2 |
| 20260506012402 | 48 | 268 | 0.0 | 0.0 | 0.00 | 0.60 | 0.00 | 96 | 1011.3 |
| 20260506012307 | 48 | 124 | 0.0 | 0.0 | 0.00 | 0.60 | 0.00 | 96 | 1011.2 |
| 20260506012201 | 48 | 124 | 0.0 | 0.0 | 0.00 | 0.60 | 0.00 | 96 | 1011.1 |
| 20260506012102 | 48 | 124 | 0.0 | 0.0 | 0.00 | 0.60 | 0.00 | 96 | 1011.2 |
| 20260506012002 | 47 | 124 | 0.0 | 0.0 | 0.00 | 0.60 | 0.00 | 96 | 1011.2 |
| 20260506011903 | 48 | 124 | 0.0 | 0.0 | 0.00 | 0.60 | 0.00 | 96 | 1011.1 |
| 20260506011802 | 48 | 124 | 0.0 | 0.0 | 0.00 | 0.60 | 0.00 | 96 | 1011.3 |
| 20260506011502 | 48 | 124 | 0.0 | 0.0 | 0.00 | 0.60 | 0.00 | 96 | 1011.3 |
| 20260506011402 | 48 | 124 | 0.0 | 0.0 | 0.00 | 0.60 | 0.00 | 96 | 1011.3 |
| 20260506011301 | 48 | 124 | 0.0 | 0.0 | 0.00 | 0.60 | 0.00 | 96 | 1011.2 |
| 20260506011203 | 48 | 124 | 0.0 | 0.0 | 0.00 | 0.60 | 0.00 | 96 | 1011.3 |
| 20260506011002 | 48 | 124 | 0.0 | 0.0 | 0.00 | 0.60 | 0.00 | 96 | 1011.4 |
| 20260506010901 | 48 | 124 | 0.0 | 0.0 | 0.00 | 0.60 | 0.00 | 96 | 1011.2 |
| 20260506010804 | 48 | 124 | 0.0 | 0.0 | 0.00 | 0.60 | 0.00 | 96 | 1011.3 |
| 20260506010701 | 48 | 124 | 0.0 | 0.0 | 0.00 | 0.60 | 0.00 | 96 | 1011.3 |
| 20260506010601 | 48 | 124 | 0.0 | 0.0 | 0.00 | 0.60 | 0.00 | 96 | 1011.4 |
| 20260506010403 | 48 | 124 | 0.0 | 0.0 | 0.00 | 0.60 | 0.00 | 96 | 1011.5 |
| 20260506010302 | 48 | 124 | 0.0 | 0.0 | 0.00 | 0.60 | 0.00 | 96 | 1011.4 |
| 20260506010201 | 48 | 124 | 0.0 | 0.0 | 0.00 | 0.60 | 0.00 | 96 | 1011.3 |
| 20260506005801 | 48 | 124 | 0.0 | 0.0 | 0.00 | 0.60 | 0.00 | 96 | 1011.3 |
| 20260506005501 | 48 | 124 | 0.0 | 0.0 | 0.00 | 0.60 | 0.00 | 96 | 1011.4 |
| 20260506005400 | 48 | 124 | 0.0 | 0.0 | 0.00 | 0.60 | 0.00 | 96 | 1011.3 |
| 20260506005305 | 48 | 124 | 0.0 | 0.0 | 0.00 | 0.60 | 0.00 | 96 | 1011.3 |
| 20260506005200 | 48 | 124 | 0.0 | 0.0 | 0.00 | 0.60 | 0.00 | 96 | 1011.4 |
| 20260506005100 | 47 | 126 | 0.0 | 0.0 | 0.00 | 0.60 | 0.00 | 96 | 1011.3 |
| 20260506005001 | 47 | 127 | 0.0 | 0.0 | 0.00 | 0.60 | 0.00 | 96 | 1011.3 |
| 20260506004700 | 47 | 127 | 0.9 | 1.7 | 0.00 | 0.60 | 0.00 | 96 | 1011.3 |
| 20260506004602 | 47 | 127 | 0.9 | 2.6 | 0.00 | 0.60 | 0.00 | 96 | 1011.2 |
| 20260506004500 | 47 | 127 | 0.9 | 2.6 | 0.00 | 0.60 | 0.00 | 96 | 1011.3 |
| 20260506004400 | 47 | 127 | 0.9 | 2.6 | 0.00 | 0.60 | 0.00 | 96 | 1011.3 |
| 20260506004203 | 47 | 127 | 0.9 | 2.6 | 0.00 | 0.60 | 0.00 | 96 | 1011.4 |
| 20260506004100 | 47 | 127 | 0.9 | 2.6 | 0.00 | 0.60 | 0.00 | 96 | 1011.3 |
| 20260506003900 | 47 | 127 | 0.9 | 2.6 | 0.00 | 0.60 | 0.00 | 96 | 1011.5 |
| 20260506003803 | 47 | 127 | 0.0 | 2.6 | 0.00 | 0.60 | 0.00 | 96 | 1011.4 |
| 20260506003701 | 47 | 127 | 0.0 | 2.6 | 0.00 | 0.60 | 0.00 | 95 | 1011.6 |
| 20260506003600 | 47 | 127 | 0.0 | 2.6 | 0.00 | 0.60 | 0.00 | 95 | 1011.3 |
| 20260506003501 | 47 | 127 | 0.0 | 1.7 | 0.00 | 0.60 | 0.00 | 96 | 1011.3 |
| 20260506003402 | 47 | 126 | 0.0 | 1.7 | 0.00 | 0.60 | 0.00 | 96 | 1011.3 |
| 20260506003300 | 47 | 126 | 0.0 | 2.6 | 0.00 | 0.60 | 0.00 | 96 | 1011.2 |
| 20260506003102 | 47 | 126 | 0.0 | 2.6 | 0.00 | 0.60 | 0.00 | 96 | 1011.2 |
| 20260506003001 | 47 | 126 | 0.0 | 2.6 | 0.00 | 0.60 | 0.00 | 96 | 1011.2 |
| 20260506002800 | 48 | 126 | 0.0 | 2.6 | 0.00 | 0.60 | 0.00 | 96 | 1011.1 |
| 20260506002703 | 48 | 126 | 0.0 | 2.6 | 0.00 | 0.60 | 0.00 | 96 | 1011.2 |
| 20260506002600 | 48 | 126 | 0.0 | 2.6 | 0.00 | 0.60 | 0.00 | 96 | 1011.3 |
| 20260506002501 | 48 | 126 | 0.0 | 2.6 | 0.00 | 0.60 | 0.00 | 96 | 1011.2 |
| 20260506002400 | 47 | 142 | 0.0 | 1.7 | 0.00 | 0.60 | 0.00 | 96 | 1011.3 |
| 20260506002306 | 47 | 190 | 0.0 | 0.0 | 0.00 | 0.60 | 0.00 | 96 | 1011.3 |
| 20260506002201 | 47 | 190 | 0.0 | 0.0 | 0.00 | 0.60 | 0.00 | 96 | 1011.4 |
| 20260506002001 | 47 | 190 | 0.0 | 0.0 | 0.00 | 0.60 | 0.00 | 96 | 1011.5 |
| 20260506001902 | 47 | 191 | 0.0 | 0.0 | 0.00 | 0.60 | 0.00 | 96 | 1011.5 |
| 20260506001800 | 47 | 191 | 0.0 | 0.0 | 0.00 | 0.60 | 0.00 | 96 | 1011.3 |
| 20260506001702 | 47 | 190 | 0.0 | 0.0 | 0.00 | 0.60 | 0.00 | 96 | 1011.4 |
| 20260506001600 | 47 | 191 | 0.0 | 0.0 | 0.00 | 0.60 | 0.00 | 96 | 1011.3 |
| 20260506001503 | 47 | 190 | 0.0 | 0.0 | 0.00 | 0.60 | 0.00 | 96 | 1011.4 |
| 20260506001400 | 47 | 190 | 0.0 | 0.0 | 0.00 | 0.60 | 0.00 | 96 | 1011.3 |
| 20260506001303 | 47 | 190 | 0.0 | 0.0 | 0.00 | 0.60 | 0.00 | 96 | 1011.5 |
| 20260506001200 | 47 | 190 | 0.0 | 0.0 | 0.00 | 0.60 | 0.00 | 96 | 1011.5 |
| 20260506001103 | 47 | 190 | 0.0 | 0.0 | 0.00 | 0.60 | 0.00 | 96 | 1011.5 |
| 20260506001001 | 47 | 190 | 0.0 | 0.0 | 0.00 | 0.60 | 0.00 | 96 | 1011.8 |
| 20260506000902 | 47 | 190 | 0.0 | 0.0 | 0.00 | 0.60 | 0.00 | 96 | 1011.7 |
| 20260506000802 | 48 | 190 | 0.0 | 0.0 | 0.00 | 0.60 | 0.00 | 96 | 1011.7 |
| 20260506000700 | 48 | 192 | 0.0 | 0.0 | 0.00 | 0.60 | 0.00 | 96 | 1011.8 |
| 20260506000600 | 47 | 192 | 0.0 | 0.0 | 0.00 | 0.60 | 0.00 | 96 | 1011.8 |
| 20260506000500 | 48 | 192 | 0.0 | 0.0 | 0.00 | 0.60 | 0.00 | 96 | 1011.9 |
| 20260506000402 | 47 | 192 | 0.0 | 0.0 | 0.00 | 0.60 | 0.00 | 96 | 1011.8 |
| 20260506000302 | 47 | 192 | 0.0 | 0.0 | 0.00 | 0.60 | 0.00 | 96 | 1011.9 |
| 20260506000204 | 47 | 192 | 0.0 | 0.0 | 0.00 | 0.60 | 0.00 | 96 | 1011.8 |
| 20260506000100 | 47 | 192 | 0.0 | 0.0 | 0.00 | 0.60 | 0.00 | 96 | 1011.8 |
| 20260506000007 | 47 | 192 | 0.0 | 0.0 | 0.00 | 0.60 | 0.00 | 96 | 1011.8 |
| 20260505235800 | 47 | 192 | 0.0 | 0.0 | 0.00 | 0.60 | 0.00 | 96 | 1011.8 |
| 20260505235702 | 47 | 192 | 0.0 | 0.0 | 0.00 | 0.60 | 0.00 | 96 | 1011.8 |
| 20260505235600 | 47 | 192 | 0.0 | 0.0 | 0.00 | 0.60 | 0.00 | 96 | 1011.8 |
| 20260505235501 | 47 | 192 | 0.0 | 0.0 | 0.00 | 0.60 | 0.00 | 95 | 1011.9 |
| 20260505235400 | 47 | 192 | 0.0 | 0.0 | 0.00 | 0.60 | 0.00 | 96 | 1011.9 |
| 20260505235305 | 47 | 192 | 0.0 | 0.0 | 0.00 | 0.60 | 0.00 | 96 | 1012.0 |
| 20260505235202 | 47 | 192 | 0.0 | 0.0 | 0.00 | 0.60 | 0.00 | 96 | 1012.1 |
| 20260505235100 | 47 | 192 | 0.0 | 0.0 | 0.00 | 0.60 | 0.00 | 96 | 1012.0 |
| 20260505234902 | 47 | 192 | 0.0 | 0.0 | 0.00 | 0.60 | 0.00 | 96 | 1012.0 |
| 20260505234800 | 47 | 192 | 0.0 | 0.0 | 0.00 | 0.60 | 0.00 | 96 | 1012.0 |
| 20260505234700 | 47 | 192 | 0.0 | 0.0 | 0.00 | 0.60 | 0.00 | 96 | 1012.0 |
| 20260505234600 | 47 | 192 | 0.0 | 0.0 | 0.00 | 0.60 | 0.00 | 95 | 1012.0 |
| 20260505234504 | 47 | 192 | 0.0 | 0.0 | 0.00 | 0.60 | 0.00 | 95 | 1012.1 |
| 20260505234401 | 47 | 192 | 0.0 | 0.0 | 0.00 | 0.60 | 0.00 | 95 | 1012.0 |
| 20260505234300 | 47 | 192 | 0.0 | 0.0 | 0.00 | 0.60 | 0.00 | 95 | 1012.0 |
| 20260505234202 | 47 | 192 | 0.0 | 0.0 | 0.00 | 0.60 | 0.00 | 95 | 1012.0 |
| 20260505234102 | 47 | 192 | 0.0 | 0.0 | 0.00 | 0.60 | 0.00 | 95 | 1012.1 |
| 20260505233900 | 47 | 192 | 0.0 | 0.0 | 0.00 | 0.60 | 0.00 | 95 | 1012.0 |
| 20260505233803 | 47 | 192 | 0.0 | 0.0 | 0.00 | 0.60 | 0.00 | 95 | 1012.1 |
| 20260505233700 | 47 | 192 | 0.0 | 0.0 | 0.00 | 0.60 | 0.00 | 95 | 1012.1 |
| 20260505233600 | 47 | 192 | 0.0 | 0.0 | 0.00 | 0.60 | 0.00 | 95 | 1012.1 |
| 20260505233503 | 47 | 192 | 0.0 | 0.0 | 0.00 | 0.60 | 0.00 | 95 | 1012.2 |
| 20260505233401 | 47 | 192 | 0.0 | 0.0 | 0.00 | 0.60 | 0.00 | 95 | 1012.1 |
| 20260505233300 | 47 | 192 | 0.0 | 0.0 | 0.00 | 0.60 | 0.00 | 95 | 1012.3 |
| 20260505233200 | 47 | 192 | 0.0 | 0.0 | 0.00 | 0.60 | 0.00 | 95 | 1012.2 |
| 20260505233102 | 47 | 192 | 0.0 | 0.0 | 0.00 | 0.60 | 0.00 | 95 | 1012.3 |
| 20260505233001 | 47 | 192 | 0.0 | 0.0 | 0.00 | 0.60 | 0.00 | 95 | 1012.3 |
| 20260505232901 | 47 | 192 | 0.0 | 0.0 | 0.00 | 0.60 | 0.00 | 95 | 1012.3 |
| 20260505232802 | 47 | 192 | 0.0 | 0.0 | 0.00 | 0.60 | 0.00 | 95 | 1012.4 |
| 20260505232702 | 47 | 192 | 0.0 | 0.0 | 0.00 | 0.60 | 0.00 | 95 | 1012.3 |
| 20260505232601 | 47 | 192 | 0.0 | 0.0 | 0.00 | 0.60 | 0.00 | 95 | 1012.3 |
| 20260505232500 | 47 | 192 | 0.0 | 0.0 | 0.00 | 0.60 | 0.00 | 95 | 1012.4 |
| 20260505232403 | 47 | 192 | 0.0 | 0.0 | 0.00 | 0.60 | 0.00 | 95 | 1012.3 |
| 20260505232300 | 47 | 192 | 0.0 | 0.0 | 0.00 | 0.60 | 0.00 | 95 | 1012.4 |
| 20260505232200 | 47 | 192 | 0.0 | 0.0 | 0.00 | 0.60 | 0.00 | 95 | 1012.3 |
| 20260505232100 | 47 | 192 | 0.0 | 0.0 | 0.00 | 0.60 | 0.00 | 95 | 1012.4 |
| 20260505232004 | 47 | 192 | 0.0 | 0.0 | 0.00 | 0.60 | 0.00 | 95 | 1012.4 |
| 20260505231800 | 47 | 192 | 0.0 | 0.0 | 0.00 | 0.60 | 0.00 | 95 | 1012.4 |
| 20260505231701 | 47 | 192 | 0.0 | 0.0 | 0.00 | 0.60 | 0.00 | 95 | 1012.2 |
| 20260505231602 | 47 | 192 | 0.0 | 0.0 | 0.00 | 0.60 | 0.00 | 95 | 1012.3 |
| 20260505231500 | 47 | 192 | 0.0 | 0.0 | 0.00 | 0.60 | 0.00 | 95 | 1012.3 |
| 20260505231402 | 47 | 192 | 0.0 | 0.0 | 0.00 | 0.60 | 0.00 | 95 | 1012.3 |
| 20260505231300 | 47 | 192 | 0.0 | 0.0 | 0.00 | 0.60 | 0.00 | 95 | 1012.3 |
| 20260505231202 | 47 | 192 | 0.0 | 0.0 | 0.00 | 0.60 | 0.00 | 95 | 1012.3 |
| 20260505231100 | 47 | 192 | 0.0 | 0.0 | 0.00 | 0.60 | 0.00 | 95 | 1012.2 |
| 20260505231001 | 47 | 192 | 0.0 | 0.0 | 0.00 | 0.60 | 0.00 | 95 | 1012.2 |
| 20260505230900 | 47 | 192 | 0.0 | 0.0 | 0.00 | 0.60 | 0.00 | 95 | 1012.2 |
| 20260505230802 | 47 | 192 | 0.0 | 0.0 | 0.00 | 0.60 | 0.00 | 95 | 1012.1 |
| 20260505230702 | 47 | 192 | 0.0 | 0.0 | 0.00 | 0.60 | 0.00 | 95 | 1012.2 |
| 20260505230600 | 47 | 192 | 0.0 | 0.0 | 0.00 | 0.60 | 0.00 | 95 | 1012.1 |
| 20260505230500 | 47 | 192 | 0.0 | 0.0 | 0.00 | 0.60 | 0.00 | 95 | 1012.1 |
| 20260505230403 | 47 | 192 | 0.0 | 0.0 | 0.00 | 0.60 | 0.00 | 95 | 1012.3 |
| 20260505230300 | 47 | 192 | 0.0 | 0.0 | 0.00 | 0.60 | 0.00 | 94 | 1012.3 |
| 20260505225904 | 47 | 192 | 0.0 | 0.0 | 0.00 | 0.60 | 0.00 | 94 | 1012.2 |
| 20260505225803 | 47 | 192 | 0.0 | 0.0 | 0.00 | 0.60 | 0.00 | 94 | 1012.3 |
| 20260505225706 | 48 | 192 | 0.0 | 0.0 | 0.00 | 0.60 | 0.00 | 94 | 1012.2 |
| 20260505225504 | 48 | 192 | 0.0 | 0.0 | 0.00 | 0.60 | 0.00 | 94 | 1012.3 |
| 20260505225405 | 48 | 192 | 0.0 | 0.0 | 0.00 | 0.60 | 0.00 | 94 | 1012.3 |
| 20260505225103 | 48 | 192 | 0.0 | 0.0 | 0.00 | 0.60 | 0.00 | 94 | 1012.3 |
| 20260505225004 | 48 | 192 | 0.0 | 0.0 | 0.00 | 0.60 | 0.00 | 94 | 1012.3 |
| 20260505224805 | 48 | 192 | 0.0 | 0.9 | 0.00 | 0.60 | 0.00 | 94 | 1012.4 |
| 20260505224704 | 48 | 192 | 0.0 | 1.7 | 0.00 | 0.60 | 0.00 | 94 | 1012.5 |
| 20260505224603 | 48 | 192 | 0.0 | 1.7 | 0.00 | 0.60 | 0.00 | 94 | 1012.4 |
| 20260505224503 | 48 | 192 | 0.9 | 2.6 | 0.00 | 0.60 | 0.00 | 94 | 1012.3 |
| 20260505224405 | 48 | 192 | 0.9 | 2.6 | 0.00 | 0.60 | 0.00 | 94 | 1012.3 |
| 20260505224104 | 48 | 192 | 0.9 | 2.6 | 0.00 | 0.60 | 0.00 | 94 | 1012.4 |
| 20260505224004 | 48 | 192 | 0.9 | 2.6 | 0.00 | 0.60 | 0.00 | 94 | 1012.5 |
| 20260505223805 | 48 | 192 | 1.7 | 2.6 | 0.00 | 0.60 | 0.00 | 94 | 1012.5 |
| 20260505223704 | 48 | 192 | 1.7 | 2.6 | 0.00 | 0.60 | 0.00 | 94 | 1012.5 |
| 20260505223603 | 48 | 192 | 1.7 | 2.6 | 0.00 | 0.60 | 0.00 | 94 | 1012.5 |
| 20260505223503 | 49 | 192 | 1.7 | 2.6 | 0.00 | 0.60 | 0.00 | 94 | 1012.4 |
| 20260505223405 | 49 | 192 | 1.7 | 3.5 | 0.00 | 0.60 | 0.00 | 94 | 1012.4 |
| 20260505223303 | 49 | 192 | 1.7 | 3.5 | 0.00 | 0.60 | 0.00 | 94 | 1012.5 |
| 20260505223203 | 49 | 192 | 1.7 | 3.5 | 0.00 | 0.60 | 0.00 | 94 | 1012.4 |
| 20260505223105 | 49 | 192 | 1.7 | 3.5 | 0.00 | 0.60 | 0.00 | 94 | 1012.5 |
| 20260505223006 | 49 | 192 | 1.7 | 3.5 | 0.00 | 0.60 | 0.00 | 94 | 1012.4 |
| 20260505222903 | 49 | 192 | 1.7 | 3.5 | 0.00 | 0.60 | 0.00 | 94 | 1012.4 |
| 20260505222803 | 49 | 192 | 1.7 | 3.5 | 0.00 | 0.60 | 0.00 | 94 | 1012.5 |
| 20260505222706 | 49 | 192 | 1.7 | 3.5 | 0.00 | 0.60 | 0.00 | 94 | 1012.5 |
| 20260505222604 | 49 | 200 | 1.7 | 3.5 | 0.00 | 0.60 | 0.00 | 94 | 1012.5 |
| 20260505222504 | 49 | 203 | 1.7 | 3.5 | 0.00 | 0.60 | 0.00 | 94 | 1012.5 |
| 20260505222406 | 49 | 203 | 1.7 | 3.5 | 0.00 | 0.60 | 0.00 | 94 | 1012.5 |
| 20260505222306 | 50 | 203 | 0.9 | 3.5 | 0.00 | 0.60 | 0.00 | 94 | 1012.5 |
| 20260505222203 | 50 | 189 | 0.9 | 3.5 | 0.00 | 0.60 | 0.00 | 94 | 1012.6 |
| 20260505222103 | 50 | 189 | 0.9 | 3.5 | 0.00 | 0.60 | 0.00 | 94 | 1012.5 |
| 20260505222004 | 50 | 189 | 0.9 | 3.5 | 0.00 | 0.60 | 0.00 | 94 | 1012.5 |
| 20260505221905 | 50 | 189 | 0.9 | 3.5 | 0.00 | 0.60 | 0.00 | 95 | 1012.5 |
| 20260505221803 | 50 | 188 | 1.7 | 3.5 | 0.00 | 0.60 | 0.00 | 95 | 1012.5 |
| 20260505221704 | 50 | 188 | 1.7 | 4.3 | 0.00 | 0.60 | 0.00 | 95 | 1012.5 |
| 20260505221603 | 50 | 188 | 1.7 | 4.3 | 0.00 | 0.60 | 0.00 | 95 | 1012.4 |
| 20260505221505 | 50 | 188 | 2.6 | 4.3 | 0.00 | 0.60 | 0.00 | 95 | 1012.4 |
| 20260505221405 | 50 | 188 | 2.6 | 4.3 | 0.00 | 0.60 | 0.00 | 95 | 1012.5 |
| 20260505221303 | 50 | 188 | 3.5 | 4.3 | 0.00 | 0.60 | 0.00 | 95 | 1012.4 |
| 20260505221203 | 50 | 188 | 3.5 | 4.3 | 0.00 | 0.60 | 0.00 | 95 | 1012.4 |
| 20260505221106 | 50 | 188 | 3.5 | 4.3 | 0.00 | 0.60 | 0.00 | 95 | 1012.5 |
| 20260505221004 | 50 | 188 | 3.5 | 4.3 | 0.00 | 0.60 | 0.00 | 95 | 1012.4 |
| 20260505220903 | 50 | 191 | 3.5 | 4.3 | 0.00 | 0.60 | 0.00 | 95 | 1012.4 |
| 20260505220805 | 50 | 191 | 3.5 | 4.3 | 0.00 | 0.60 | 0.00 | 95 | 1012.5 |
| 20260505220704 | 50 | 190 | 2.6 | 4.3 | 0.00 | 0.60 | 0.00 | 95 | 1012.5 |
| 20260505220503 | 50 | 192 | 2.6 | 4.3 | 0.00 | 0.60 | 0.00 | 95 | 1012.5 |
| 20260505220303 | 50 | 200 | 2.6 | 5.2 | 0.00 | 0.60 | 0.00 | 95 | 1012.5 |
| 20260505220205 | 50 | 207 | 3.5 | 6.1 | 0.00 | 0.60 | 0.00 | 95 | 1012.5 |
| 20260505220103 | 50 | 213 | 3.5 | 6.1 | 0.00 | 0.60 | 0.00 | 95 | 1012.6 |
| 20260505220010 | 50 | 210 | 3.5 | 6.1 | 0.00 | 0.60 | 0.00 | 95 | 1012.6 |
| 20260505215903 | 50 | 214 | 4.3 | 6.1 | 0.00 | 0.60 | 0.60 | 94 | 1012.6 |
| 20260505215803 | 50 | 216 | 4.3 | 6.1 | 0.00 | 0.60 | 0.60 | 94 | 1012.6 |
| 20260505215706 | 50 | 204 | 4.3 | 6.1 | 0.00 | 0.60 | 0.60 | 94 | 1012.7 |
| 20260505215603 | 50 | 194 | 4.3 | 6.1 | 0.00 | 0.60 | 0.60 | 94 | 1012.7 |
| 20260505215503 | 50 | 190 | 4.3 | 6.1 | 0.00 | 0.60 | 0.60 | 94 | 1012.7 |
| 20260505215305 | 51 | 185 | 3.5 | 6.1 | 0.00 | 0.60 | 0.60 | 94 | 1012.7 |
| 20260505215203 | 51 | 188 | 3.5 | 6.1 | 0.00 | 0.60 | 0.60 | 94 | 1012.6 |
| 20260505215103 | 51 | 190 | 3.5 | 6.1 | 0.00 | 0.60 | 0.60 | 94 | 1012.6 |
| 20260505215004 | 51 | 191 | 2.6 | 6.1 | 0.00 | 0.60 | 0.60 | 94 | 1012.7 |
| 20260505214905 | 51 | 188 | 2.6 | 4.3 | 0.00 | 0.60 | 0.60 | 94 | 1012.7 |
| 20260505214805 | 51 | 202 | 2.6 | 4.3 | 0.00 | 0.60 | 0.60 | 94 | 1012.6 |
| 20260505214705 | 51 | 174 | 2.6 | 5.2 | 0.00 | 0.60 | 0.60 | 94 | 1012.7 |
| 20260505214603 | 51 | 186 | 2.6 | 3.5 | 0.00 | 0.60 | 0.60 | 94 | 1012.7 |
| 20260505214503 | 51 | 188 | 1.7 | 3.5 | 0.00 | 0.60 | 0.60 | 94 | 1012.7 |
| 20260505214405 | 52 | 188 | 1.7 | 3.5 | 0.00 | 0.60 | 0.60 | 94 | 1012.6 |
| 20260505214103 | 52 | 197 | 1.7 | 2.6 | 0.00 | 0.60 | 0.60 | 94 | 1012.6 |
| 20260505214004 | 52 | 198 | 1.7 | 2.6 | 0.00 | 0.60 | 0.60 | 94 | 1012.7 |
| 20260505213904 | 52 | 198 | 1.7 | 2.6 | 0.00 | 0.60 | 0.60 | 95 | 1012.8 |
| 20260505213805 | 52 | 198 | 0.9 | 2.6 | 0.00 | 0.60 | 0.60 | 95 | 1012.7 |
| 20260505213603 | 52 | 198 | 0.9 | 2.6 | 0.00 | 0.60 | 0.60 | 95 | 1012.8 |
| 20260505213503 | 52 | 198 | 0.9 | 2.6 | 0.00 | 0.60 | 0.60 | 95 | 1012.8 |
| 20260505213405 | 52 | 198 | 0.9 | 2.6 | 0.00 | 0.60 | 0.60 | 95 | 1012.8 |
| 20260505213303 | 52 | 198 | 1.7 | 2.6 | 0.00 | 0.60 | 0.60 | 95 | 1012.9 |
| 20260505213203 | 52 | 198 | 1.7 | 2.6 | 0.00 | 0.60 | 0.60 | 95 | 1012.8 |
| 20260505213105 | 52 | 198 | 0.9 | 2.6 | 0.00 | 0.60 | 0.60 | 95 | 1012.8 |
| 20260505212920 | 52 | 198 | 0.9 | 3.5 | 0.00 | 0.60 | 0.60 | 95 | 1012.9 |
| 20260505212820 | 52 | 199 | 0.9 | 3.5 | 0.00 | 0.60 | 0.60 | 95 | 1013.0 |
| 20260505212722 | 52 | 200 | 0.9 | 3.5 | 0.00 | 0.60 | 0.60 | 95 | 1012.9 |
| 20260505212530 | 52 | 200 | 0.9 | 3.5 | 0.00 | 0.60 | 0.60 | 95 | 1012.9 |
| 20260505212420 | 52 | 200 | 0.9 | 3.5 | 0.00 | 0.60 | 0.60 | 95 | 1012.9 |
| 20260505212321 | 52 | 200 | 0.9 | 3.5 | 0.00 | 0.60 | 0.60 | 95 | 1012.9 |
| 20260505212220 | 52 | 200 | 0.0 | 3.5 | 0.00 | 0.60 | 0.60 | 95 | 1012.9 |
| 20260505212122 | 52 | 200 | 0.0 | 3.5 | 0.00 | 0.60 | 0.60 | 95 | 1012.9 |
| 20260505212038 | 52 | 202 | 0.0 | 0.0 | 0.00 | 0.60 | 0.60 | 95 | 1012.8 |
| 20260505211722 | 53 | 202 | 0.0 | 0.0 | 0.00 | 0.60 | 0.60 | 95 | 1013.0 |
| 20260505211620 | 53 | 202 | 0.0 | 1.7 | 0.00 | 0.60 | 0.60 | 95 | 1012.9 |
| 20260505211530 | 53 | 202 | 0.0 | 1.7 | 0.00 | 0.60 | 0.60 | 96 | 1012.8 |
| 20260505211420 | 53 | 202 | 0.9 | 2.6 | 0.00 | 0.60 | 0.60 | 96 | 1012.8 |
| 20260505211321 | 53 | 202 | 0.9 | 2.6 | 0.00 | 0.60 | 0.60 | 96 | 1013.1 |
| 20260505211220 | 53 | 202 | 0.9 | 3.5 | 0.00 | 0.60 | 0.60 | 96 | 1012.9 |
| 20260505211122 | 53 | 203 | 0.9 | 3.5 | 0.00 | 0.60 | 0.60 | 96 | 1013.0 |
| 20260505211038 | 53 | 203 | 1.7 | 3.5 | 0.00 | 0.60 | 0.60 | 96 | 1013.0 |
| 20260505210921 | 53 | 203 | 1.7 | 3.5 | 0.00 | 0.60 | 0.60 | 96 | 1013.1 |
| 20260505210820 | 53 | 203 | 1.7 | 3.5 | 0.00 | 0.60 | 0.60 | 96 | 1013.0 |
| 20260505210722 | 53 | 203 | 1.7 | 3.5 | 0.00 | 0.60 | 0.60 | 96 | 1012.9 |
| 20260505210620 | 53 | 203 | 1.7 | 3.5 | 0.00 | 0.60 | 0.60 | 96 | 1013.0 |
| 20260505210530 | 53 | 203 | 1.7 | 3.5 | 0.00 | 0.60 | 0.60 | 96 | 1012.9 |
| 20260505210420 | 53 | 203 | 1.7 | 3.5 | 0.00 | 0.60 | 0.60 | 96 | 1012.9 |
| 20260505210322 | 53 | 194 | 1.7 | 3.5 | 0.00 | 0.60 | 0.60 | 96 | 1013.0 |
| 20260505210122 | 53 | 194 | 1.7 | 3.5 | 0.00 | 0.60 | 0.60 | 96 | 1013.1 |
| 20260505210041 | 53 | 190 | 0.9 | 3.5 | 0.00 | 0.60 | 0.60 | 96 | 1013.0 |
| 20260505205920 | 53 | 192 | 0.9 | 3.5 | 0.00 | 0.60 | 0.60 | 96 | 1013.0 |
| 20260505205822 | 53 | 192 | 0.9 | 3.5 | 0.00 | 0.60 | 0.60 | 96 | 1013.1 |
| 20260505205722 | 53 | 192 | 0.9 | 3.5 | 0.00 | 0.60 | 0.60 | 96 | 1013.0 |
| 20260505205620 | 53 | 192 | 0.9 | 3.5 | 0.00 | 0.60 | 0.60 | 96 | 1012.8 |
| 20260505205528 | 53 | 192 | 0.0 | 3.5 | 0.00 | 0.60 | 0.60 | 96 | 1012.9 |
| 20260505205422 | 53 | 198 | 0.0 | 2.6 | 0.00 | 0.60 | 0.60 | 96 | 1012.9 |
| 20260505205322 | 53 | 209 | 0.0 | 0.9 | 0.00 | 0.60 | 0.60 | 96 | 1013.1 |
| 20260505205220 | 53 | 209 | 0.0 | 0.9 | 0.00 | 0.60 | 0.60 | 96 | 1013.0 |
| 20260505205038 | 53 | 209 | 0.9 | 2.6 | 0.00 | 0.60 | 0.60 | 96 | 1013.0 |
| 20260505204922 | 53 | 209 | 0.9 | 2.6 | 0.00 | 0.60 | 0.60 | 96 | 1013.0 |
| 20260505204820 | 53 | 209 | 0.9 | 3.5 | 0.00 | 0.60 | 0.60 | 96 | 1013.1 |
| 20260505204620 | 53 | 209 | 0.9 | 3.5 | 0.00 | 0.60 | 0.60 | 96 | 1013.0 |
| 20260505204530 | 53 | 209 | 0.9 | 3.5 | 0.00 | 0.60 | 0.60 | 96 | 1013.2 |
| 20260505204421 | 53 | 209 | 0.9 | 3.5 | 0.00 | 0.60 | 0.60 | 96 | 1013.1 |
| 20260505204320 | 53 | 209 | 0.9 | 3.5 | 0.00 | 0.60 | 0.60 | 96 | 1013.1 |
| 20260505204220 | 53 | 209 | 0.9 | 3.5 | 0.00 | 0.60 | 0.60 | 96 | 1013.1 |
| 20260505204124 | 53 | 209 | 0.0 | 3.5 | 0.00 | 0.60 | 0.60 | 96 | 1013.1 |
| 20260505204045 | 53 | 209 | 0.0 | 3.5 | 0.00 | 0.60 | 0.60 | 96 | 1013.1 |
| 20260505203920 | 53 | 100 | 0.0 | 0.0 | 0.00 | 0.60 | 0.60 | 96 | 1013.2 |
| 20260505203822 | 53 | 83 | 0.0 | 0.0 | 0.00 | 0.60 | 0.60 | 96 | 1013.1 |
| 20260505203622 | 53 | 83 | 0.0 | 0.0 | 0.00 | 0.60 | 0.60 | 96 | 1013.1 |
| 20260505203528 | 53 | 83 | 0.0 | 0.0 | 0.00 | 0.60 | 0.60 | 96 | 1013.2 |
| 20260505203222 | 53 | 83 | 0.0 | 0.0 | 0.00 | 0.60 | 0.60 | 96 | 1013.4 |
| 20260505203122 | 53 | 83 | 0.0 | 0.0 | 0.00 | 0.60 | 0.60 | 96 | 1013.3 |
| 20260505203038 | 53 | 83 | 0.0 | 0.0 | 0.00 | 0.60 | 0.60 | 96 | 1013.3 |
| 20260505202921 | 53 | 83 | 0.0 | 0.0 | 0.00 | 0.60 | 0.60 | 96 | 1013.3 |
| 20260505202824 | 53 | 83 | 0.0 | 0.0 | 0.00 | 0.60 | 0.60 | 96 | 1013.2 |
| 20260505202720 | 53 | 83 | 0.0 | 0.0 | 0.00 | 0.60 | 0.60 | 96 | 1013.3 |
| 20260505202620 | 53 | 83 | 0.0 | 0.0 | 0.00 | 0.60 | 0.60 | 96 | 1013.3 |
| 20260505202528 | 53 | 83 | 0.0 | 0.0 | 0.00 | 0.60 | 0.60 | 96 | 1013.3 |
| 20260505202424 | 53 | 83 | 0.0 | 0.0 | 0.00 | 0.60 | 0.60 | 96 | 1013.3 |
| 20260505202320 | 53 | 83 | 0.0 | 0.0 | 0.00 | 0.60 | 0.60 | 96 | 1013.3 |
| 20260505202121 | 54 | 83 | 0.0 | 0.0 | 0.00 | 0.60 | 0.60 | 96 | 1013.3 |
| 20260505202041 | 54 | 83 | 0.0 | 0.0 | 0.00 | 0.60 | 0.60 | 96 | 1013.3 |
| 20260505201921 | 54 | 83 | 0.0 | 0.0 | 0.00 | 0.60 | 0.60 | 96 | 1013.4 |
| 20260505201822 | 54 | 83 | 0.0 | 0.0 | 0.00 | 0.60 | 0.60 | 96 | 1013.3 |
| 20260505201623 | 54 | 83 | 0.0 | 0.0 | 0.00 | 0.60 | 0.60 | 96 | 1013.4 |
| 20260505201529 | 54 | 83 | 0.0 | 0.0 | 0.00 | 0.60 | 0.60 | 96 | 1013.3 |
| 20260505201321 | 54 | 83 | 0.0 | 0.0 | 0.00 | 0.60 | 0.60 | 96 | 1013.4 |
| 20260505201223 | 54 | 83 | 0.0 | 0.0 | 0.00 | 0.60 | 0.60 | 96 | 1013.4 |
| 20260505201122 | 54 | 83 | 0.0 | 0.0 | 0.00 | 0.60 | 0.60 | 96 | 1013.3 |
| 20260505201044 | 54 | 83 | 0.0 | 0.0 | 0.00 | 0.60 | 0.60 | 96 | 1013.4 |
| 20260505200921 | 54 | 83 | 0.0 | 0.0 | 0.00 | 0.60 | 0.60 | 96 | 1013.4 |
| 20260505200822 | 54 | 83 | 0.0 | 0.0 | 0.00 | 0.60 | 0.60 | 96 | 1013.4 |
| 20260505200720 | 54 | 83 | 0.0 | 0.0 | 0.00 | 0.60 | 0.60 | 96 | 1013.4 |
| 20260505200625 | 54 | 83 | 0.0 | 0.0 | 0.00 | 0.60 | 0.60 | 96 | 1013.3 |
| 20260505200535 | 54 | 83 | 0.0 | 0.0 | 0.00 | 0.60 | 0.60 | 96 | 1013.4 |
| 20260505200323 | 54 | 83 | 0.0 | 0.0 | 0.00 | 0.60 | 0.60 | 96 | 1013.3 |
| 20260505200224 | 54 | 83 | 0.0 | 0.0 | 0.00 | 0.60 | 0.60 | 96 | 1013.3 |
| 20260505200044 | 54 | 83 | 0.0 | 0.0 | 0.00 | 0.60 | 0.60 | 96 | 1013.3 |
| 20260505195923 | 54 | 83 | 0.0 | 0.0 | 0.00 | 0.60 | 0.60 | 96 | 1013.3 |
| 20260505195820 | 54 | 83 | 0.0 | 0.0 | 0.00 | 0.60 | 0.60 | 96 | 1013.2 |
| 20260505195724 | 54 | 83 | 0.0 | 0.0 | 0.00 | 0.60 | 0.60 | 96 | 1013.2 |
| 20260505195621 | 54 | 83 | 0.0 | 0.0 | 0.00 | 0.60 | 0.60 | 96 | 1013.2 |
| 20260505195421 | 54 | 83 | 0.0 | 0.0 | 0.00 | 0.60 | 0.60 | 96 | 1013.1 |